Wetterdaten: Montag, 30.01.2023
Datum Zeit Temp. Aussen Temp. o. S. Temp +5cm Feuchte Auss Luftdruck Regen Sonnenschein Regendauer Solar Windben Empfang
30.01.2023 00:00 2,9 C 2,2 C -0,6 C 92 % 1020,9 hPa 0,0 l/m 0 min 0 min 0 W/m 25,7 km/h (4 Bft) 95,74 %
30.01.2023 00:02 2,9 C 2,2 C -0,6 C 92 % 1020,7 hPa 0,0 l/m 0 min 0 min 0 W/m 22,5 km/h (4 Bft) 97,06 %
30.01.2023 00:04 2,9 C 2,2 C -0,6 C 92 % 1020,6 hPa 0,0 l/m 0 min 0 min 0 W/m 22,5 km/h (4 Bft) 93,62 %
30.01.2023 00:08 3,0 C 2,2 C -0,6 C 92 % 1020,4 hPa 0,0 l/m 0 min 0 min 0 W/m 19,3 km/h (3 Bft) 97,85 %
30.01.2023 00:10 2,9 C 2,2 C -0,6 C 92 % 1020,3 hPa 0,0 l/m 0 min 0 min 0 W/m 25,7 km/h (4 Bft) 93,62 %
30.01.2023 00:12 3,0 C 2,2 C -0,6 C 92 % 1020,3 hPa 0,0 l/m 0 min 0 min 0 W/m 19,3 km/h (3 Bft) 95,74 %
30.01.2023 00:14 3,0 C 2,2 C -0,6 C 92 % 1020,3 hPa 0,0 l/m 0 min 0 min 0 W/m 25,7 km/h (4 Bft) 97,87 %
30.01.2023 00:16 3,0 C 2,2 C -0,6 C 92 % 1020,3 hPa 0,0 l/m 0 min 0 min 0 W/m 22,5 km/h (4 Bft) 93,62 %
30.01.2023 00:18 3,1 C 2,8 C -0,6 C 92 % 1020,3 hPa 0,0 l/m 0 min 0 min 0 W/m 25,7 km/h (4 Bft) 95,74 %
30.01.2023 00:20 3,1 C 2,8 C -0,6 C 92 % 1020,4 hPa 0,0 l/m 0 min 0 min 0 W/m 32,2 km/h (5 Bft) 95,74 %
30.01.2023 00:22 3,1 C 2,8 C -0,6 C 92 % 1020,6 hPa 0,0 l/m 0 min 0 min 0 W/m 12,9 km/h (3 Bft) 93,48 %
30.01.2023 00:24 3,1 C 2,8 C -0,6 C 92 % 1020,6 hPa 0,0 l/m 0 min 0 min 0 W/m 12,9 km/h (3 Bft) 93,62 %
30.01.2023 00:26 3,1 C 2,8 C -0,6 C 93 % 1020,6 hPa 0,0 l/m 0 min 0 min 0 W/m 22,5 km/h (4 Bft) 93,62 %
30.01.2023 00:28 3,1 C 2,8 C -0,6 C 93 % 1020,6 hPa 0,0 l/m 0 min 0 min 0 W/m 12,9 km/h (3 Bft) 93,62 %
30.01.2023 00:30 3,2 C 2,8 C -0,6 C 93 % 1020,5 hPa 0,0 l/m 0 min 0 min 0 W/m 29,0 km/h (5 Bft) 95,74 %
30.01.2023 00:32 3,2 C 2,8 C -0,6 C 93 % 1020,5 hPa 0,0 l/m 0 min 0 min 0 W/m 29,0 km/h (5 Bft) 91,49 %
30.01.2023 00:34 3,2 C 2,8 C -0,6 C 93 % 1020,5 hPa 0,0 l/m 0 min 0 min 0 W/m 19,3 km/h (3 Bft) 95,74 %
30.01.2023 00:36 3,2 C 2,8 C -0,6 C 93 % 1020,5 hPa 0,0 l/m 0 min 0 min 0 W/m 19,3 km/h (3 Bft) 93,48 %
30.01.2023 00:38 3,2 C 2,8 C -0,6 C 93 % 1020,5 hPa 0,0 l/m 0 min 0 min 0 W/m 12,9 km/h (3 Bft) 93,62 %
30.01.2023 00:40 3,2 C 2,8 C -0,6 C 93 % 1020,3 hPa 0,0 l/m 0 min 0 min 0 W/m 29,0 km/h (5 Bft) 97,87 %
30.01.2023 00:42 3,2 C 2,8 C -0,6 C 93 % 1020,3 hPa 0,0 l/m 0 min 0 min 0 W/m 25,7 km/h (4 Bft) 74,47 %
30.01.2023 00:44 3,3 C 2,8 C -0,6 C 93 % 1020,4 hPa 0,0 l/m 0 min 0 min 0 W/m 19,3 km/h (3 Bft) 46,81 %
30.01.2023 00:46 3,2 C 2,8 C -0,6 C 93 % 1020,3 hPa 0,0 l/m 0 min 0 min 0 W/m 16,1 km/h (3 Bft) 53,19 %
30.01.2023 00:48 3,3 C 2,8 C -0,6 C 93 % 1020,2 hPa 0,0 l/m 0 min 0 min 0 W/m 25,7 km/h (4 Bft) 56,52 %
30.01.2023 00:50 3,3 C 2,8 C -0,6 C 93 % 1020,2 hPa 0,0 l/m 0 min 0 min 0 W/m 16,1 km/h (3 Bft) 38,30 %
30.01.2023 00:52 3,3 C 2,8 C -0,6 C 93 % 1020,0 hPa 0,0 l/m 0 min 0 min 0 W/m 22,5 km/h (4 Bft) 48,94 %
30.01.2023 00:54 3,3 C 2,8 C -0,6 C 93 % 1019,7 hPa 0,0 l/m 0 min 0 min 0 W/m 16,1 km/h (3 Bft) 78,72 %
30.01.2023 00:56 3,3 C 2,8 C -0,6 C 93 % 1019,7 hPa 0,0 l/m 0 min 0 min 0 W/m 32,2 km/h (5 Bft) 87,23 %
30.01.2023 00:58 3,4 C 2,8 C 0,0 C 93 % 1019,8 hPa 0,0 l/m 0 min 0 min 0 W/m 48,3 km/h (6 Bft) 93,62 %
30.01.2023 01:00 3,4 C 2,8 C 0,0 C 93 % 1019,8 hPa 0,0 l/m 0 min 0 min 0 W/m 22,5 km/h (4 Bft) 97,87 %
30.01.2023 01:02 3,4 C 2,8 C 0,0 C 93 % 1019,9 hPa 0,0 l/m 0 min 0 min 0 W/m 16,1 km/h (3 Bft) 91,30 %
30.01.2023 01:04 3,4 C 2,8 C 0,0 C 93 % 1020,0 hPa 0,0 l/m 0 min 0 min 0 W/m 25,7 km/h (4 Bft) 100,00 %
30.01.2023 01:06 3,4 C 2,8 C 0,0 C 93 % 1019,9 hPa 0,0 l/m 0 min 0 min 0 W/m 16,1 km/h (3 Bft) 98,31 %
30.01.2023 01:08 3,4 C 2,8 C 0,0 C 93 % 1019,9 hPa 0,0 l/m 0 min 0 min 0 W/m 25,7 km/h (4 Bft) 94,29 %
30.01.2023 01:10 3,5 C 2,8 C 0,0 C 93 % 1020,0 hPa 0,0 l/m 0 min 0 min 0 W/m 19,3 km/h (3 Bft) 100,00 %
30.01.2023 01:12 3,5 C 2,8 C 0,0 C 93 % 1019,9 hPa 0,0 l/m 0 min 0 min 0 W/m 19,3 km/h (3 Bft) 100,00 %
30.01.2023 01:14 3,5 C 2,8 C 0,0 C 93 % 1019,8 hPa 0,0 l/m 0 min 0 min 0 W/m 19,3 km/h (3 Bft) 93,62 %
30.01.2023 01:16 3,4 C 2,8 C 0,0 C 93 % 1019,8 hPa 0,0 l/m 0 min 0 min 0 W/m 19,3 km/h (3 Bft) 97,83 %
30.01.2023 01:18 3,4 C 2,8 C 0,0 C 93 % 1019,8 hPa 0,0 l/m 0 min 0 min 0 W/m 19,3 km/h (3 Bft) 100,00 %
30.01.2023 01:20 3,4 C 2,8 C 0,0 C 93 % 1019,7 hPa 0,0 l/m 0 min 0 min 0 W/m 32,2 km/h (5 Bft) 97,87 %
30.01.2023 01:22 3,5 C 2,8 C 0,0 C 93 % 1019,8 hPa 0,0 l/m 0 min 0 min 0 W/m 16,1 km/h (3 Bft) 95,74 %
30.01.2023 01:24 3,4 C 2,8 C 0,0 C 93 % 1019,8 hPa 0,0 l/m 0 min 0 min 0 W/m 22,5 km/h (4 Bft) 100,00 %
30.01.2023 01:26 3,5 C 2,8 C 0,0 C 93 % 1019,6 hPa 0,0 l/m 0 min 0 min 0 W/m 19,3 km/h (3 Bft) 91,49 %
30.01.2023 01:28 3,5 C 2,8 C 0,0 C 93 % 1019,6 hPa 0,0 l/m 0 min 0 min 0 W/m 19,3 km/h (3 Bft) 97,83 %
30.01.2023 01:30 3,5 C 2,8 C 0,0 C 93 % 1019,6 hPa 0,0 l/m 0 min 0 min 0 W/m 19,3 km/h (3 Bft) 95,74 %
30.01.2023 01:32 3,5 C 2,8 C 0,0 C 94 % 1019,5 hPa 0,0 l/m 0 min 0 min 0 W/m 19,3 km/h (3 Bft) 95,74 %
30.01.2023 01:34 3,5 C 2,8 C 0,0 C 93 % 1019,4 hPa 0,0 l/m 0 min 0 min 0 W/m 19,3 km/h (3 Bft) 97,87 %
30.01.2023 01:36 3,6 C 2,8 C 0,0 C 93 % 1019,4 hPa 0,0 l/m 0 min 0 min 0 W/m 22,5 km/h (4 Bft) 95,74 %
30.01.2023 01:38 3,6 C 2,8 C 0,0 C 94 % 1019,4 hPa 0,0 l/m 0 min 0 min 0 W/m 29,0 km/h (5 Bft) 95,74 %
30.01.2023 01:40 3,6 C 3,3 C 0,0 C 94 % 1019,3 hPa 0,0 l/m 0 min 0 min 0 W/m 25,7 km/h (4 Bft) 97,83 %
30.01.2023 01:42 3,6 C 3,3 C 0,0 C 94 % 1019,4 hPa 0,0 l/m 0 min 0 min 0 W/m 16,1 km/h (3 Bft) 95,74 %
30.01.2023 01:44 3,6 C 3,3 C 0,0 C 94 % 1019,2 hPa 0,0 l/m 0 min 0 min 0 W/m 19,3 km/h (3 Bft) 95,74 %
30.01.2023 01:46 3,7 C 3,3 C 0,0 C 94 % 1019,1 hPa 0,0 l/m 0 min 0 min 0 W/m 16,1 km/h (3 Bft) 93,62 %
30.01.2023 01:48 3,7 C 3,3 C 0,0 C 94 % 1019,1 hPa 0,0 l/m 0 min 0 min 0 W/m 29,0 km/h (5 Bft) 95,74 %
30.01.2023 01:50 3,7 C 3,3 C 0,0 C 94 % 1019,0 hPa 0,0 l/m 0 min 0 min 0 W/m 32,2 km/h (5 Bft) 95,74 %
30.01.2023 01:52 3,7 C 3,3 C 0,0 C 94 % 1019,1 hPa 0,0 l/m 0 min 0 min 0 W/m 32,2 km/h (5 Bft) 97,87 %
30.01.2023 01:54 3,7 C 3,3 C 0,0 C 94 % 1019,1 hPa 0,0 l/m 0 min 0 min 0 W/m 22,5 km/h (4 Bft) 97,83 %
30.01.2023 01:56 3,7 C 3,3 C 0,0 C 94 % 1019,1 hPa 0,0 l/m 0 min 0 min 0 W/m 19,3 km/h (3 Bft) 95,74 %
30.01.2023 01:58 3,8 C 3,3 C 0,0 C 94 % 1019,1 hPa 0,0 l/m 0 min 0 min 0 W/m 35,4 km/h (5 Bft) 97,87 %
30.01.2023 02:00 3,8 C 3,3 C 0,0 C 94 % 1019,1 hPa 0,0 l/m 0 min 0 min 0 W/m 22,5 km/h (4 Bft) 100,00 %
30.01.2023 02:02 3,8 C 3,3 C 0,0 C 94 % 1019,0 hPa 0,0 l/m 0 min 0 min 0 W/m 19,3 km/h (3 Bft) 100,00 %
30.01.2023 02:04 3,8 C 3,3 C 0,0 C 94 % 1019,0 hPa 0,0 l/m 0 min 0 min 0 W/m 19,3 km/h (3 Bft) 97,87 %
30.01.2023 02:06 3,8 C 3,3 C 0,0 C 94 % 1018,9 hPa 0,0 l/m 0 min 0 min 0 W/m 16,1 km/h (3 Bft) 98,28 %
30.01.2023 02:08 3,8 C 3,3 C 0,0 C 94 % 1019,0 hPa 0,0 l/m 0 min 0 min 0 W/m 19,3 km/h (3 Bft) 100,00 %
30.01.2023 02:10 3,8 C 3,3 C 0,0 C 94 % 1018,9 hPa 0,0 l/m 0 min 0 min 0 W/m 19,3 km/h (3 Bft) 100,00 %
30.01.2023 02:12 3,8 C 3,3 C 0,0 C 94 % 1018,9 hPa 0,0 l/m 0 min 0 min 0 W/m 19,3 km/h (3 Bft) 100,00 %
30.01.2023 02:14 3,8 C 3,3 C 0,0 C 94 % 1018,9 hPa 0,0 l/m 0 min 0 min 0 W/m 25,7 km/h (4 Bft) 97,87 %
30.01.2023 02:16 3,8 C 3,3 C 0,0 C 94 % 1018,8 hPa 0,0 l/m 0 min 0 min 0 W/m 22,5 km/h (4 Bft) 100,00 %
30.01.2023 02:18 3,8 C 3,3 C 0,0 C 94 % 1018,8 hPa 0,0 l/m 0 min 0 min 0 W/m 22,5 km/h (4 Bft) 100,00 %
30.01.2023 02:20 3,8 C 3,3 C 0,0 C 94 % 1018,8 hPa 0,0 l/m 0 min 0 min 0 W/m 19,3 km/h (3 Bft) 100,00 %
30.01.2023 02:22 3,9 C 3,3 C 0,0 C 94 % 1018,8 hPa 0,0 l/m 0 min 0 min 0 W/m 19,3 km/h (3 Bft) 100,00 %
30.01.2023 02:24 3,9 C 3,3 C 0,0 C 94 % 1018,9 hPa 0,0 l/m 0 min 0 min 0 W/m 19,3 km/h (3 Bft) 100,00 %
30.01.2023 02:26 3,9 C 3,3 C 0,0 C 94 % 1018,8 hPa 0,0 l/m 0 min 0 min 0 W/m 19,3 km/h (3 Bft) 97,87 %
30.01.2023 02:28 3,9 C 3,3 C 0,0 C 94 % 1018,8 hPa 0,0 l/m 0 min 0 min 0 W/m 19,3 km/h (3 Bft) 97,87 %
30.01.2023 02:30 4,0 C 3,3 C 0,6 C 94 % 1018,7 hPa 0,0 l/m 0 min 0 min 0 W/m 25,7 km/h (4 Bft) 97,87 %
30.01.2023 02:32 4,0 C 3,3 C 0,6 C 94 % 1018,6 hPa 0,0 l/m 0 min 0 min 0 W/m 16,1 km/h (3 Bft) 100,00 %
30.01.2023 02:34 4,0 C 3,3 C 0,6 C 94 % 1018,7 hPa 0,0 l/m 0 min 0 min 0 W/m 22,5 km/h (4 Bft) 100,00 %
30.01.2023 02:36 4,1 C 3,3 C 0,6 C 94 % 1018,8 hPa 0,0 l/m 0 min 0 min 0 W/m 19,3 km/h (3 Bft) 97,87 %
30.01.2023 02:38 4,1 C 3,3 C 0,6 C 94 % 1018,7 hPa 0,0 l/m 0 min 0 min 0 W/m 16,1 km/h (3 Bft) 97,87 %
30.01.2023 02:40 4,1 C 3,3 C 0,6 C 94 % 1018,7 hPa 0,0 l/m 0 min 0 min 0 W/m 19,3 km/h (3 Bft) 95,74 %
30.01.2023 02:42 4,1 C 3,3 C 0,6 C 94 % 1018,7 hPa 0,0 l/m 0 min 0 min 0 W/m 22,5 km/h (4 Bft) 95,74 %
30.01.2023 02:44 4,1 C 3,3 C 0,6 C 94 % 1018,6 hPa 0,0 l/m 0 min 0 min 0 W/m 19,3 km/h (3 Bft) 97,87 %
30.01.2023 02:46 4,1 C 3,3 C 0,6 C 94 % 1018,7 hPa 0,0 l/m 0 min 0 min 0 W/m 12,9 km/h (3 Bft) 95,65 %
30.01.2023 02:48 4,1 C 3,3 C 0,6 C 94 % 1018,8 hPa 0,0 l/m 0 min 0 min 0 W/m 29,0 km/h (5 Bft) 97,87 %
30.01.2023 02:50 4,2 C 3,3 C 0,6 C 94 % 1018,7 hPa 0,0 l/m 0 min 0 min 0 W/m 22,5 km/h (4 Bft) 95,74 %
30.01.2023 02:52 4,2 C 3,3 C 0,6 C 94 % 1018,6 hPa 0,0 l/m 0 min 0 min 0 W/m 19,3 km/h (3 Bft) 97,87 %
30.01.2023 02:54 4,2 C 3,3 C 0,6 C 94 % 1018,6 hPa 0,0 l/m 0 min 0 min 0 W/m 22,5 km/h (4 Bft) 97,87 %
30.01.2023 02:56 4,2 C 3,3 C 0,6 C 94 % 1018,6 hPa 0,0 l/m 0 min 0 min 0 W/m 19,3 km/h (3 Bft) 97,87 %
30.01.2023 02:58 4,2 C 3,3 C 0,6 C 94 % 1018,6 hPa 0,0 l/m 0 min 0 min 0 W/m 25,7 km/h (4 Bft) 97,87 %
30.01.2023 03:00 4,2 C 3,3 C 0,6 C 94 % 1018,5 hPa 0,0 l/m 0 min 0 min 0 W/m 19,3 km/h (3 Bft) 95,65 %
30.01.2023 03:02 4,2 C 3,3 C 0,6 C 94 % 1018,6 hPa 0,0 l/m 0 min 0 min 0 W/m 25,7 km/h (4 Bft) 97,87 %
30.01.2023 03:04 4,2 C 3,9 C 0,6 C 94 % 1018,5 hPa 0,0 l/m 0 min 0 min 0 W/m 25,7 km/h (4 Bft) 100,00 %
30.01.2023 03:06 4,2 C 3,9 C 0,6 C 94 % 1018,4 hPa 0,0 l/m 0 min 0 min 0 W/m 19,3 km/h (3 Bft) 97,87 %
30.01.2023 03:08 4,2 C 3,9 C 0,6 C 94 % 1018,5 hPa 0,0 l/m 0 min 0 min 0 W/m 22,5 km/h (4 Bft) 91,49 %
30.01.2023 03:10 4,3 C 3,9 C 0,6 C 94 % 1018,5 hPa 0,0 l/m 0 min 0 min 0 W/m 22,5 km/h (4 Bft) 93,62 %
30.01.2023 03:12 4,3 C 3,3 C 0,6 C 94 % 1018,4 hPa 0,0 l/m 0 min 0 min 0 W/m 19,3 km/h (3 Bft) 95,65 %
30.01.2023 03:14 4,3 C 3,9 C 0,6 C 94 % 1018,4 hPa 0,0 l/m 0 min 0 min 0 W/m 25,7 km/h (4 Bft) 93,62 %
30.01.2023 03:16 4,3 C 3,9 C 0,6 C 94 % 1018,3 hPa 0,0 l/m 0 min 0 min 0 W/m 19,3 km/h (3 Bft) 55,32 %
30.01.2023 03:18 4,3 C 3,3 C 0,6 C 94 % 1018,3 hPa 0,0 l/m 0 min 0 min 0 W/m 22,5 km/h (4 Bft) 95,74 %
30.01.2023 03:20 4,3 C 3,3 C 0,6 C 94 % 1018,3 hPa 0,0 l/m 0 min 0 min 0 W/m 16,1 km/h (3 Bft) 95,74 %
30.01.2023 03:22 4,3 C 3,3 C 0,6 C 94 % 1018,2 hPa 0,0 l/m 0 min 0 min 0 W/m 22,5 km/h (4 Bft) 95,74 %
30.01.2023 03:24 4,2 C 3,3 C 0,6 C 94 % 1018,3 hPa 0,0 l/m 0 min 0 min 0 W/m 22,5 km/h (4 Bft) 95,74 %
30.01.2023 03:26 4,2 C 3,3 C 0,6 C 94 % 1018,1 hPa 0,0 l/m 0 min 0 min 0 W/m 16,1 km/h (3 Bft) 95,65 %
30.01.2023 03:28 4,2 C 3,3 C 0,6 C 94 % 1018,1 hPa 0,0 l/m 0 min 0 min 0 W/m 19,3 km/h (3 Bft) 95,74 %
30.01.2023 03:30 4,2 C 3,3 C 0,6 C 94 % 1018,0 hPa 0,0 l/m 0 min 0 min 0 W/m 19,3 km/h (3 Bft) 95,74 %
30.01.2023 03:32 4,2 C 3,3 C 0,6 C 94 % 1017,8 hPa 0,0 l/m 0 min 0 min 0 W/m 29,0 km/h (5 Bft) 91,49 %
30.01.2023 03:34 4,2 C 3,3 C 0,6 C 94 % 1017,9 hPa 0,0 l/m 0 min 0 min 0 W/m 19,3 km/h (3 Bft) 95,74 %
30.01.2023 03:36 4,2 C 3,3 C 0,6 C 94 % 1017,9 hPa 0,0 l/m 0 min 0 min 0 W/m 19,3 km/h (3 Bft) 93,62 %
30.01.2023 03:38 4,2 C 3,3 C 0,6 C 94 % 1017,9 hPa 0,0 l/m 0 min 0 min 0 W/m 25,7 km/h (4 Bft) 93,48 %
30.01.2023 03:40 4,2 C 3,3 C 0,6 C 94 % 1017,7 hPa 0,0 l/m 0 min 0 min 0 W/m 19,3 km/h (3 Bft) 95,74 %
30.01.2023 03:42 4,2 C 3,3 C 0,6 C 94 % 1017,7 hPa 0,0 l/m 0 min 0 min 0 W/m 19,3 km/h (3 Bft) 93,62 %
30.01.2023 03:44 4,2 C 3,3 C 0,6 C 94 % 1017,8 hPa 0,0 l/m 0 min 0 min 0 W/m 16,1 km/h (3 Bft) 95,74 %
30.01.2023 03:46 4,2 C 3,3 C 0,6 C 94 % 1017,8 hPa 0,0 l/m 0 min 0 min 0 W/m 9,7 km/h (2 Bft) 95,74 %
30.01.2023 03:48 4,2 C 3,3 C 0,6 C 94 % 1017,7 hPa 0,0 l/m 0 min 0 min 0 W/m 29,0 km/h (5 Bft) 95,74 %
30.01.2023 03:50 4,2 C 3,3 C 0,6 C 94 % 1017,6 hPa 0,0 l/m 0 min 0 min 0 W/m 29,0 km/h (5 Bft) 93,62 %
30.01.2023 03:52 4,2 C 3,9 C 0,6 C 95 % 1017,6 hPa 0,0 l/m 0 min 0 min 0 W/m 25,7 km/h (4 Bft) 95,65 %
30.01.2023 03:54 4,3 C 3,9 C 0,6 C 95 % 1017,4 hPa 0,0 l/m 0 min 0 min 0 W/m 35,4 km/h (5 Bft) 97,87 %
30.01.2023 03:56 4,2 C 3,9 C 0,6 C 95 % 1017,5 hPa 0,0 l/m 0 min 0 min 0 W/m 41,8 km/h (6 Bft) 97,87 %
30.01.2023 03:58 4,2 C 3,9 C 0,6 C 95 % 1017,4 hPa 0,0 l/m 0 min 0 min 0 W/m 16,1 km/h (3 Bft) 97,87 %
30.01.2023 04:00 4,2 C 3,9 C 0,6 C 95 % 1017,6 hPa 0,0 l/m 0 min 0 min 0 W/m 25,7 km/h (4 Bft) 97,87 %
30.01.2023 04:06 4,3 C 3,3 C 0,6 C 95 % 1017,4 hPa 0,0 l/m 0 min 0 min 0 W/m 16,1 km/h (3 Bft) 100,00 %
30.01.2023 04:08 4,2 C 3,9 C 0,6 C 95 % 1017,4 hPa 0,0 l/m 0 min 0 min 0 W/m 22,5 km/h (4 Bft) 97,87 %
30.01.2023 04:10 4,2 C 3,9 C 0,6 C 95 % 1017,5 hPa 0,0 l/m 0 min 0 min 0 W/m 19,3 km/h (3 Bft) 100,00 %
30.01.2023 04:12 4,2 C 3,9 C 0,6 C 95 % 1017,5 hPa 0,0 l/m 0 min 0 min 0 W/m 16,1 km/h (3 Bft) 100,00 %
30.01.2023 04:14 4,2 C 3,9 C 0,6 C 95 % 1017,5 hPa 0,0 l/m 0 min 0 min 0 W/m 16,1 km/h (3 Bft) 97,87 %
30.01.2023 04:16 4,3 C 3,9 C 0,6 C 95 % 1017,5 hPa 0,0 l/m 0 min 0 min 0 W/m 19,3 km/h (3 Bft) 100,00 %
30.01.2023 04:18 4,3 C 3,9 C 0,6 C 95 % 1017,4 hPa 0,0 l/m 0 min 0 min 0 W/m 22,5 km/h (4 Bft) 100,00 %
30.01.2023 04:20 4,3 C 3,9 C 0,6 C 95 % 1017,2 hPa 0,0 l/m 0 min 0 min 0 W/m 19,3 km/h (3 Bft) 100,00 %
30.01.2023 04:22 4,3 C 3,9 C 0,6 C 95 % 1017,3 hPa 0,0 l/m 0 min 0 min 0 W/m 16,1 km/h (3 Bft) 100,00 %
30.01.2023 04:24 4,3 C 3,9 C 0,6 C 95 % 1017,2 hPa 0,0 l/m 0 min 0 min 0 W/m 19,3 km/h (3 Bft) 100,00 %
30.01.2023 04:26 4,3 C 3,9 C 0,6 C 95 % 1017,2 hPa 0,0 l/m 0 min 0 min 0 W/m 19,3 km/h (3 Bft) 100,00 %
30.01.2023 04:28 4,3 C 3,9 C 0,6 C 95 % 1017,2 hPa 0,0 l/m 0 min 0 min 0 W/m 16,1 km/h (3 Bft) 100,00 %
30.01.2023 04:30 4,3 C 3,9 C 0,6 C 95 % 1017,2 hPa 0,0 l/m 0 min 0 min 0 W/m 25,7 km/h (4 Bft) 100,00 %
30.01.2023 04:32 4,4 C 3,9 C 0,6 C 95 % 1017,2 hPa 0,0 l/m 0 min 0 min 0 W/m 29,0 km/h (5 Bft) 100,00 %
30.01.2023 04:34 4,4 C 3,9 C 1,1 C 95 % 1017,2 hPa 0,0 l/m 0 min 0 min 0 W/m 19,3 km/h (3 Bft) 95,74 %
30.01.2023 04:36 4,4 C 3,9 C 1,1 C 95 % 1017,2 hPa 0,0 l/m 0 min 0 min 0 W/m 25,7 km/h (4 Bft) 100,00 %
30.01.2023 04:38 4,5 C 3,9 C 1,1 C 95 % 1017,1 hPa 0,0 l/m 0 min 2 min 0 W/m 19,3 km/h (3 Bft) 97,87 %
30.01.2023 04:40 4,5 C 3,9 C 1,1 C 95 % 1017,1 hPa 0,0 l/m 0 min 2 min 0 W/m 22,5 km/h (4 Bft) 100,00 %
30.01.2023 04:42 4,5 C 3,9 C 1,1 C 95 % 1016,9 hPa 0,0 l/m 0 min 2 min 0 W/m 16,1 km/h (3 Bft) 100,00 %
30.01.2023 04:44 4,5 C 3,9 C 1,1 C 95 % 1017,0 hPa 0,0 l/m 0 min 2 min 0 W/m 29,0 km/h (5 Bft) 100,00 %
30.01.2023 04:46 4,6 C 3,9 C 1,1 C 95 % 1017,0 hPa 0,0 l/m 0 min 2 min 0 W/m 29,0 km/h (5 Bft) 100,00 %
30.01.2023 04:48 4,6 C 3,9 C 1,1 C 95 % 1017,1 hPa 0,0 l/m 0 min 2 min 0 W/m 25,7 km/h (4 Bft) 100,00 %
30.01.2023 04:50 4,6 C 3,9 C 1,1 C 95 % 1017,0 hPa 0,0 l/m 0 min 2 min 0 W/m 19,3 km/h (3 Bft) 95,74 %
30.01.2023 04:52 4,6 C 3,9 C 1,1 C 95 % 1017,0 hPa 0,0 l/m 0 min 2 min 0 W/m 29,0 km/h (5 Bft) 95,74 %
30.01.2023 04:54 4,6 C 3,9 C 1,1 C 95 % 1017,0 hPa 0,0 l/m 0 min 2 min 0 W/m 22,5 km/h (4 Bft) 100,00 %
30.01.2023 04:56 4,6 C 3,9 C 1,1 C 95 % 1017,0 hPa 0,0 l/m 0 min 2 min 0 W/m 25,7 km/h (4 Bft) 100,00 %
30.01.2023 04:58 4,6 C 3,9 C 1,1 C 95 % 1016,9 hPa 0,0 l/m 0 min 2 min 0 W/m 22,5 km/h (4 Bft) 100,00 %
30.01.2023 05:00 4,7 C 3,9 C 1,1 C 95 % 1016,9 hPa 0,0 l/m 0 min 0 min 0 W/m 29,0 km/h (5 Bft) 100,00 %
30.01.2023 05:02 4,7 C 3,9 C 1,1 C 96 % 1016,8 hPa 0,0 l/m 0 min 2 min 0 W/m 19,3 km/h (3 Bft) 97,87 %
30.01.2023 05:04 4,7 C 3,9 C 1,1 C 96 % 1016,8 hPa 0,0 l/m 0 min 2 min 0 W/m 29,0 km/h (5 Bft) 100,00 %
30.01.2023 05:06 4,7 C 3,9 C 1,1 C 96 % 1016,7 hPa 0,0 l/m 0 min 2 min 0 W/m 29,0 km/h (5 Bft) 97,87 %
30.01.2023 05:08 4,7 C 3,9 C 1,1 C 96 % 1016,7 hPa 0,0 l/m 0 min 2 min 0 W/m 22,5 km/h (4 Bft) 97,87 %
30.01.2023 05:10 4,7 C 3,9 C 1,1 C 96 % 1016,6 hPa 0,0 l/m 0 min 0 min 0 W/m 16,1 km/h (3 Bft) 91,49 %
30.01.2023 05:12 4,7 C 3,9 C 1,1 C 96 % 1016,7 hPa 0,0 l/m 0 min 0 min 0 W/m 19,3 km/h (3 Bft) 93,48 %
30.01.2023 05:14 4,7 C 3,9 C 1,1 C 96 % 1016,7 hPa 0,0 l/m 0 min 0 min 0 W/m 22,5 km/h (4 Bft) 95,74 %
30.01.2023 05:16 4,8 C 3,9 C 1,1 C 96 % 1016,6 hPa 0,0 l/m 0 min 0 min 0 W/m 29,0 km/h (5 Bft) 97,87 %
30.01.2023 05:18 4,8 C 3,9 C 1,1 C 96 % 1016,7 hPa 0,0 l/m 0 min 0 min 0 W/m 22,5 km/h (4 Bft) 97,87 %
30.01.2023 05:20 4,8 C 3,9 C 1,1 C 96 % 1016,6 hPa 0,0 l/m 0 min 2 min 0 W/m 22,5 km/h (4 Bft) 97,87 %
30.01.2023 05:22 4,8 C 3,9 C 1,1 C 96 % 1016,6 hPa 0,0 l/m 0 min 2 min 0 W/m 16,1 km/h (3 Bft) 51,16 %
30.01.2023 05:24 4,8 C 3,9 C 1,1 C 96 % 1016,6 hPa 0,0 l/m 0 min 2 min 0 W/m 29,0 km/h (5 Bft) 95,74 %
30.01.2023 05:26 4,8 C 3,9 C 1,1 C 96 % 1016,7 hPa 0,0 l/m 0 min 0 min 0 W/m 16,1 km/h (3 Bft) 100,00 %
30.01.2023 05:28 4,8 C 4,4 C 1,1 C 96 % 1016,7 hPa 0,0 l/m 0 min 0 min 0 W/m 16,1 km/h (3 Bft) 97,87 %
30.01.2023 05:30 4,8 C 4,4 C 1,1 C 96 % 1016,5 hPa 0,0 l/m 0 min 0 min 0 W/m 22,5 km/h (4 Bft) 95,74 %
30.01.2023 05:32 4,9 C 4,4 C 1,1 C 96 % 1016,5 hPa 0,0 l/m 0 min 2 min 0 W/m 29,0 km/h (5 Bft) 95,74 %
30.01.2023 05:34 4,9 C 4,4 C 1,1 C 96 % 1016,5 hPa 0,0 l/m 0 min 2 min 0 W/m 19,3 km/h (3 Bft) 95,74 %
30.01.2023 05:36 4,9 C 4,4 C 1,1 C 96 % 1016,4 hPa 0,0 l/m 0 min 2 min 0 W/m 25,7 km/h (4 Bft) 95,74 %
30.01.2023 05:38 4,9 C 4,4 C 1,1 C 96 % 1016,4 hPa 0,0 l/m 0 min 2 min 0 W/m 22,5 km/h (4 Bft) 95,65 %
30.01.2023 05:40 5,0 C 3,9 C 1,1 C 96 % 1016,5 hPa 0,0 l/m 0 min 2 min 0 W/m 22,5 km/h (4 Bft) 95,74 %
30.01.2023 05:42 5,0 C 3,9 C 1,1 C 96 % 1016,5 hPa 0,0 l/m 0 min 2 min 0 W/m 19,3 km/h (3 Bft) 95,74 %
30.01.2023 05:44 5,0 C 3,9 C 1,1 C 96 % 1016,5 hPa 0,2 l/m 0 min 2 min 0 W/m 16,1 km/h (3 Bft) 85,11 %
30.01.2023 05:46 5,0 C 3,9 C 1,1 C 96 % 1016,5 hPa 0,0 l/m 0 min 2 min 0 W/m 25,7 km/h (4 Bft) 80,85 %
30.01.2023 05:48 5,0 C 3,9 C 1,1 C 96 % 1016,5 hPa 0,0 l/m 0 min 0 min 0 W/m 16,1 km/h (3 Bft) 91,49 %
30.01.2023 05:50 5,0 C 4,4 C 1,1 C 96 % 1016,4 hPa 0,0 l/m 0 min 0 min 0 W/m 22,5 km/h (4 Bft) 80,43 %
30.01.2023 05:52 5,0 C 4,4 C 1,1 C 96 % 1016,5 hPa 0,0 l/m 0 min 0 min 0 W/m 19,3 km/h (3 Bft) 93,18 %
30.01.2023 05:54 5,0 C 4,4 C 1,1 C 96 % 1016,4 hPa 0,0 l/m 0 min 0 min 0 W/m 22,5 km/h (4 Bft) 97,87 %
30.01.2023 05:56 5,0 C 4,4 C 1,1 C 96 % 1016,4 hPa 0,0 l/m 0 min 2 min 0 W/m 16,1 km/h (3 Bft) 97,87 %
30.01.2023 05:58 5,0 C 4,4 C 1,1 C 96 % 1016,5 hPa 0,0 l/m 0 min 2 min 0 W/m 25,7 km/h (4 Bft) 93,62 %
30.01.2023 06:00 5,0 C 4,4 C 1,1 C 96 % 1016,4 hPa 0,0 l/m 0 min 2 min 0 W/m 22,5 km/h (4 Bft) 95,74 %
30.01.2023 06:02 5,1 C 4,4 C 1,1 C 96 % 1016,5 hPa 0,0 l/m 0 min 2 min 0 W/m 22,5 km/h (4 Bft) 95,74 %
30.01.2023 06:04 5,0 C 4,4 C 1,1 C 96 % 1016,5 hPa 0,0 l/m 0 min 2 min 0 W/m 25,7 km/h (4 Bft) 95,65 %
30.01.2023 06:07 5,1 C 4,4 C 1,1 C 96 % 1016,5 hPa 0,0 l/m 0 min 3 min 0 W/m 22,5 km/h (4 Bft) 98,63 %
30.01.2023 06:08 5,1 C 4,4 C 1,1 C 96 % 1016,5 hPa 0,0 l/m 0 min 1 min 0 W/m 22,5 km/h (4 Bft) 95,65 %
30.01.2023 06:12 5,1 C 4,4 C 1,1 C 96 % 1016,5 hPa 0,0 l/m 0 min 4 min 0 W/m 12,9 km/h (3 Bft) 98,18 %
30.01.2023 06:14 5,1 C 4,4 C 1,1 C 96 % 1016,5 hPa 0,0 l/m 0 min 0 min 0 W/m 16,1 km/h (3 Bft) 97,87 %
30.01.2023 06:16 5,1 C 4,4 C 1,1 C 97 % 1016,5 hPa 0,0 l/m 0 min 2 min 0 W/m 29,0 km/h (5 Bft) 97,87 %
30.01.2023 06:18 5,1 C 4,4 C 1,1 C 97 % 1016,5 hPa 0,0 l/m 0 min 0 min 0 W/m 6,4 km/h (2 Bft) 82,98 %
30.01.2023 06:20 5,1 C 4,4 C 1,1 C 97 % 1016,5 hPa 0,0 l/m 0 min 0 min 0 W/m 16,1 km/h (3 Bft) 95,74 %
30.01.2023 06:22 5,1 C 4,4 C 1,1 C 97 % 1016,5 hPa 0,0 l/m 0 min 0 min 0 W/m 22,5 km/h (4 Bft) 87,23 %
30.01.2023 06:24 5,1 C 4,4 C 1,1 C 97 % 1016,5 hPa 0,0 l/m 0 min 0 min 0 W/m 19,3 km/h (3 Bft) 89,13 %
30.01.2023 06:26 5,1 C 4,4 C 1,1 C 97 % 1016,4 hPa 0,0 l/m 0 min 2 min 0 W/m 16,1 km/h (3 Bft) 95,74 %
30.01.2023 06:28 5,1 C 4,4 C 1,1 C 97 % 1016,4 hPa 0,2 l/m 0 min 0 min 0 W/m 25,7 km/h (4 Bft) 97,87 %
30.01.2023 06:30 5,1 C 4,4 C 1,1 C 97 % 1016,4 hPa 0,0 l/m 0 min 0 min 0 W/m 19,3 km/h (3 Bft) 97,87 %
30.01.2023 06:32 5,1 C 4,4 C 1,7 C 97 % 1016,3 hPa 0,0 l/m 0 min 0 min 0 W/m 22,5 km/h (4 Bft) 97,87 %
30.01.2023 06:34 5,2 C 4,4 C 1,7 C 97 % 1016,4 hPa 0,0 l/m 0 min 0 min 0 W/m 29,0 km/h (5 Bft) 97,87 %
30.01.2023 06:36 5,2 C 4,4 C 1,7 C 97 % 1016,4 hPa 0,0 l/m 0 min 0 min 0 W/m 29,0 km/h (5 Bft) 95,74 %
30.01.2023 06:38 5,2 C 4,4 C 1,7 C 97 % 1016,4 hPa 0,0 l/m 0 min 0 min 0 W/m 25,7 km/h (4 Bft) 97,83 %
30.01.2023 06:40 5,2 C 4,4 C 1,7 C 97 % 1016,4 hPa 0,0 l/m 0 min 0 min 0 W/m 16,1 km/h (3 Bft) 97,87 %
30.01.2023 06:42 5,2 C 4,4 C 1,7 C 97 % 1016,4 hPa 0,0 l/m 0 min 0 min 0 W/m 16,1 km/h (3 Bft) 97,87 %
30.01.2023 06:44 5,2 C 4,4 C 1,7 C 97 % 1016,5 hPa 0,0 l/m 0 min 0 min 0 W/m 12,9 km/h (3 Bft) 97,87 %
30.01.2023 06:46 5,2 C 4,4 C 1,7 C 97 % 1016,4 hPa 0,0 l/m 0 min 0 min 0 W/m 19,3 km/h (3 Bft) 97,87 %
30.01.2023 06:48 5,2 C 4,4 C 1,7 C 97 % 1016,5 hPa 0,0 l/m 0 min 0 min 0 W/m 12,9 km/h (3 Bft) 97,87 %
30.01.2023 06:50 5,3 C 4,4 C 1,7 C 97 % 1016,5 hPa 0,0 l/m 0 min 2 min 0 W/m 25,7 km/h (4 Bft) 95,65 %
30.01.2023 06:52 5,3 C 4,4 C 1,7 C 97 % 1016,5 hPa 0,0 l/m 0 min 0 min 0 W/m 22,5 km/h (4 Bft) 95,74 %
30.01.2023 06:54 5,3 C 4,4 C 1,7 C 97 % 1016,5 hPa 0,0 l/m 0 min 0 min 0 W/m 9,7 km/h (2 Bft) 95,74 %
30.01.2023 06:56 5,3 C 4,4 C 1,7 C 97 % 1016,4 hPa 0,0 l/m 0 min 2 min 0 W/m 25,7 km/h (4 Bft) 95,74 %
30.01.2023 06:58 5,3 C 4,4 C 1,7 C 97 % 1016,3 hPa 0,0 l/m 0 min 0 min 0 W/m 19,3 km/h (3 Bft) 95,65 %
30.01.2023 07:00 5,3 C 4,4 C 1,7 C 97 % 1016,2 hPa 0,0 l/m 0 min 0 min 0 W/m 19,3 km/h (3 Bft) 68,09 %
30.01.2023 07:02 5,3 C 4,4 C 1,7 C 97 % 1016,3 hPa 0,0 l/m 0 min 2 min 0 W/m 19,3 km/h (3 Bft) 53,19 %
30.01.2023 07:04 5,3 C 4,4 C 1,7 C 97 % 1016,3 hPa 0,0 l/m 0 min 2 min 0 W/m 12,9 km/h (3 Bft) 93,48 %
30.01.2023 07:06 5,3 C 4,4 C 1,7 C 97 % 1016,3 hPa 0,0 l/m 0 min 2 min 0 W/m 22,5 km/h (4 Bft) 91,53 %
30.01.2023 07:08 5,3 C 4,4 C 1,7 C 97 % 1016,3 hPa 0,0 l/m 0 min 2 min 0 W/m 16,1 km/h (3 Bft) 91,43 %
30.01.2023 07:10 5,3 C 4,4 C 1,7 C 97 % 1016,4 hPa 0,0 l/m 0 min 2 min 0 W/m 19,3 km/h (3 Bft) 78,72 %
30.01.2023 07:12 5,3 C 4,4 C 1,7 C 97 % 1016,3 hPa 0,2 l/m 0 min 2 min 0 W/m 16,1 km/h (3 Bft) 82,98 %
30.01.2023 07:14 5,3 C 4,4 C 1,7 C 97 % 1016,4 hPa 0,0 l/m 0 min 2 min 0 W/m 16,1 km/h (3 Bft) 95,74 %
30.01.2023 07:16 5,4 C 4,4 C 1,7 C 97 % 1016,4 hPa 0,0 l/m 0 min 2 min 0 W/m 16,1 km/h (3 Bft) 100,00 %
30.01.2023 07:18 5,4 C 4,4 C 1,7 C 97 % 1016,5 hPa 0,0 l/m 0 min 2 min 0 W/m 19,3 km/h (3 Bft) 97,83 %
30.01.2023 07:20 5,4 C 4,4 C 1,7 C 97 % 1016,6 hPa 0,0 l/m 0 min 2 min 0 W/m 16,1 km/h (3 Bft) 95,74 %
30.01.2023 07:22 5,4 C 4,4 C 1,7 C 97 % 1016,6 hPa 0,0 l/m 0 min 2 min 0 W/m 19,3 km/h (3 Bft) 97,87 %
30.01.2023 07:24 5,4 C 4,4 C 1,7 C 97 % 1016,7 hPa 0,2 l/m 0 min 2 min 0 W/m 25,7 km/h (4 Bft) 97,87 %
30.01.2023 07:26 5,4 C 5,0 C 1,7 C 98 % 1016,6 hPa 0,0 l/m 0 min 2 min 0 W/m 22,5 km/h (4 Bft) 95,74 %
30.01.2023 07:28 5,5 C 5,0 C 1,7 C 98 % 1016,6 hPa 0,0 l/m 0 min 2 min 0 W/m 22,5 km/h (4 Bft) 97,87 %
30.01.2023 07:30 5,5 C 5,0 C 1,7 C 98 % 1016,7 hPa 0,2 l/m 0 min 2 min 0 W/m 12,9 km/h (3 Bft) 97,87 %
30.01.2023 07:32 5,5 C 5,0 C 1,7 C 98 % 1016,6 hPa 0,0 l/m 0 min 2 min 0 W/m 16,1 km/h (3 Bft) 95,65 %
30.01.2023 07:34 5,5 C 5,0 C 1,7 C 98 % 1016,6 hPa 0,0 l/m 0 min 0 min 0 W/m 16,1 km/h (3 Bft) 97,87 %
30.01.2023 07:36 5,6 C 5,0 C 1,7 C 98 % 1016,6 hPa 0,0 l/m 0 min 0 min 0 W/m 19,3 km/h (3 Bft) 48,72 %
30.01.2023 07:38 5,6 C 5,0 C 2,2 C 98 % 1016,5 hPa 0,0 l/m 0 min 0 min 0 W/m 16,1 km/h (3 Bft) 97,87 %
30.01.2023 07:40 5,6 C 5,0 C 2,2 C 98 % 1016,5 hPa 0,0 l/m 0 min 0 min 0 W/m 22,5 km/h (4 Bft) 93,62 %
30.01.2023 07:42 5,6 C 5,0 C 2,2 C 98 % 1016,5 hPa 0,0 l/m 0 min 0 min 0 W/m 19,3 km/h (3 Bft) 97,87 %
30.01.2023 07:44 5,6 C 5,0 C 2,2 C 98 % 1016,6 hPa 0,0 l/m 0 min 0 min 0 W/m 9,7 km/h (2 Bft) 97,83 %
30.01.2023 07:46 5,6 C 5,0 C 2,2 C 98 % 1016,5 hPa 0,0 l/m 0 min 0 min 0 W/m 12,9 km/h (3 Bft) 97,87 %
30.01.2023 07:48 5,6 C 5,0 C 2,2 C 98 % 1016,5 hPa 0,0 l/m 0 min 0 min 0 W/m 19,3 km/h (3 Bft) 95,74 %
30.01.2023 07:50 5,6 C 5,0 C 2,2 C 98 % 1016,7 hPa 0,0 l/m 0 min 0 min 0 W/m 16,1 km/h (3 Bft) 97,87 %
30.01.2023 07:52 5,6 C 5,0 C 2,2 C 98 % 1016,8 hPa 0,0 l/m 0 min 0 min 0 W/m 22,5 km/h (4 Bft) 95,74 %
30.01.2023 07:54 5,6 C 5,0 C 2,2 C 98 % 1016,8 hPa 0,0 l/m 0 min 0 min 0 W/m 12,9 km/h (3 Bft) 97,87 %
30.01.2023 07:56 5,6 C 5,0 C 2,2 C 98 % 1016,8 hPa 0,0 l/m 0 min 0 min 0 W/m 12,9 km/h (3 Bft) 97,87 %
30.01.2023 07:58 5,6 C 5,0 C 2,2 C 98 % 1016,9 hPa 0,0 l/m 0 min 0 min 0 W/m 9,7 km/h (2 Bft) 93,48 %
30.01.2023 08:00 5,6 C 5,0 C 2,2 C 98 % 1017,0 hPa 0,0 l/m 0 min 0 min 0 W/m 19,3 km/h (3 Bft) 98,00 %
30.01.2023 08:02 5,6 C 5,0 C 2,2 C 98 % 1016,9 hPa 0,0 l/m 0 min 0 min 0 W/m 12,9 km/h (3 Bft) 97,87 %
30.01.2023 08:04 5,6 C 5,0 C 2,2 C 98 % 1016,8 hPa 0,0 l/m 0 min 0 min 0 W/m 16,1 km/h (3 Bft) 97,87 %
30.01.2023 08:06 5,7 C 5,0 C 2,2 C 98 % 1016,7 hPa 0,0 l/m 0 min 0 min 0 W/m 16,1 km/h (3 Bft) 97,87 %
30.01.2023 08:08 5,7 C 5,0 C 2,2 C 98 % 1016,8 hPa 0,0 l/m 0 min 0 min 0 W/m 19,3 km/h (3 Bft) 95,74 %
30.01.2023 08:10 5,7 C 5,0 C 2,2 C 98 % 1016,7 hPa 0,0 l/m 0 min 0 min 0 W/m 12,9 km/h (3 Bft) 95,74 %
30.01.2023 08:12 5,7 C 5,0 C 2,2 C 98 % 1016,7 hPa 0,0 l/m 0 min 0 min 0 W/m 19,3 km/h (3 Bft) 97,87 %
30.01.2023 08:14 5,8 C 5,0 C 2,2 C 98 % 1016,7 hPa 0,0 l/m 0 min 0 min 0 W/m 16,1 km/h (3 Bft) 97,87 %
30.01.2023 08:16 5,8 C 5,0 C 2,2 C 98 % 1016,8 hPa 0,0 l/m 0 min 0 min 0 W/m 12,9 km/h (3 Bft) 97,83 %
30.01.2023 08:18 5,8 C 5,0 C 2,2 C 98 % 1016,7 hPa 0,0 l/m 0 min 0 min 0 W/m 22,5 km/h (4 Bft) 95,74 %
30.01.2023 08:20 5,8 C 5,0 C 2,2 C 98 % 1016,6 hPa 0,0 l/m 0 min 0 min 0 W/m 16,1 km/h (3 Bft) 95,74 %
30.01.2023 08:22 5,8 C 5,0 C 2,2 C 98 % 1016,5 hPa 0,0 l/m 0 min 0 min 0 W/m 12,9 km/h (3 Bft) 97,87 %
30.01.2023 08:24 5,8 C 5,0 C 2,2 C 98 % 1016,5 hPa 0,0 l/m 0 min 0 min 0 W/m 16,1 km/h (3 Bft) 97,87 %
30.01.2023 08:26 5,8 C 5,0 C 2,2 C 98 % 1016,6 hPa 0,0 l/m 0 min 0 min 0 W/m 22,5 km/h (4 Bft) 97,87 %
30.01.2023 08:28 5,8 C 5,6 C 2,2 C 98 % 1016,7 hPa 0,0 l/m 0 min 0 min 2 W/m 16,1 km/h (3 Bft) 97,87 %
30.01.2023 08:30 5,9 C 5,6 C 2,2 C 98 % 1016,8 hPa 0,0 l/m 0 min 0 min 2 W/m 22,5 km/h (4 Bft) 97,83 %
30.01.2023 08:32 5,9 C 5,6 C 2,2 C 98 % 1016,9 hPa 0,0 l/m 0 min 0 min 2 W/m 16,1 km/h (3 Bft) 97,87 %
30.01.2023 08:34 5,9 C 5,6 C 2,2 C 98 % 1016,8 hPa 0,0 l/m 0 min 0 min 5 W/m 19,3 km/h (3 Bft) 97,87 %
30.01.2023 08:36 5,9 C 5,6 C 2,2 C 98 % 1016,8 hPa 0,0 l/m 0 min 0 min 5 W/m 22,5 km/h (4 Bft) 97,87 %
30.01.2023 08:38 5,9 C 5,6 C 2,2 C 98 % 1016,8 hPa 0,0 l/m 0 min 0 min 6 W/m 16,1 km/h (3 Bft) 100,00 %
30.01.2023 08:40 5,9 C 5,6 C 2,2 C 98 % 1016,8 hPa 0,0 l/m 0 min 0 min 8 W/m 19,3 km/h (3 Bft) 97,87 %
30.01.2023 08:42 5,9 C 5,6 C 2,2 C 98 % 1016,8 hPa 0,0 l/m 0 min 0 min 9 W/m 12,9 km/h (3 Bft) 97,87 %
30.01.2023 08:44 5,9 C 5,6 C 2,2 C 98 % 1016,8 hPa 0,0 l/m 0 min 0 min 11 W/m 16,1 km/h (3 Bft) 100,00 %
30.01.2023 08:46 5,9 C 5,6 C 2,2 C 98 % 1016,8 hPa 0,0 l/m 0 min 0 min 11 W/m 19,3 km/h (3 Bft) 97,87 %
30.01.2023 08:48 5,9 C 5,6 C 2,2 C 98 % 1016,8 hPa 0,0 l/m 0 min 0 min 12 W/m 22,5 km/h (4 Bft) 100,00 %
30.01.2023 08:50 5,9 C 5,6 C 2,2 C 98 % 1016,8 hPa 0,0 l/m 0 min 0 min 15 W/m 16,1 km/h (3 Bft) 97,87 %
30.01.2023 08:52 5,9 C 5,6 C 2,2 C 98 % 1016,8 hPa 0,0 l/m 0 min 0 min 15 W/m 12,9 km/h (3 Bft) 95,74 %
30.01.2023 08:54 5,9 C 5,6 C 2,2 C 98 % 1016,8 hPa 0,0 l/m 0 min 0 min 16 W/m 19,3 km/h (3 Bft) 97,87 %
30.01.2023 08:56 5,8 C 5,0 C 2,2 C 98 % 1016,9 hPa 0,0 l/m 0 min 0 min 18 W/m 25,7 km/h (4 Bft) 97,83 %
30.01.2023 08:58 5,8 C 5,0 C 2,2 C 98 % 1016,9 hPa 0,0 l/m 0 min 0 min 19 W/m 12,9 km/h (3 Bft) 97,87 %
30.01.2023 09:00 5,8 C 5,0 C 2,2 C 98 % 1016,8 hPa 0,0 l/m 0 min 0 min 21 W/m 12,9 km/h (3 Bft) 95,74 %
30.01.2023 09:02 5,8 C 5,0 C 2,2 C 98 % 1016,8 hPa 0,0 l/m 0 min 0 min 23 W/m 16,1 km/h (3 Bft) 97,87 %
30.01.2023 09:04 5,8 C 5,6 C 2,2 C 98 % 1016,8 hPa 0,0 l/m 0 min 0 min 25 W/m 9,7 km/h (2 Bft) 95,12 %
30.01.2023 09:06 5,8 C 5,0 C 2,2 C 98 % 1016,9 hPa 0,0 l/m 0 min 0 min 27 W/m 12,9 km/h (3 Bft) 98,31 %
30.01.2023 09:08 5,8 C 5,0 C 2,2 C 97 % 1016,9 hPa 0,0 l/m 0 min 0 min 28 W/m 12,9 km/h (3 Bft) 97,14 %
30.01.2023 09:10 5,8 C 5,0 C 2,2 C 97 % 1016,9 hPa 0,0 l/m 0 min 0 min 28 W/m 16,1 km/h (3 Bft) 97,87 %
30.01.2023 09:12 5,8 C 5,0 C 2,2 C 97 % 1016,9 hPa 0,0 l/m 0 min 0 min 29 W/m 16,1 km/h (3 Bft) 95,74 %
30.01.2023 09:14 5,8 C 5,0 C 2,2 C 97 % 1017,0 hPa 0,0 l/m 0 min 0 min 31 W/m 12,9 km/h (3 Bft) 95,74 %
30.01.2023 09:16 5,8 C 5,6 C 2,2 C 97 % 1017,0 hPa 0,0 l/m 0 min 0 min 32 W/m 16,1 km/h (3 Bft) 95,74 %
30.01.2023 09:18 5,8 C 5,6 C 2,2 C 97 % 1017,0 hPa 0,0 l/m 0 min 0 min 33 W/m 12,9 km/h (3 Bft) 89,13 %
30.01.2023 09:20 5,8 C 5,6 C 2,2 C 97 % 1017,0 hPa 0,0 l/m 0 min 0 min 35 W/m 12,9 km/h (3 Bft) 93,62 %
30.01.2023 09:22 5,8 C 5,6 C 2,2 C 97 % 1017,0 hPa 0,0 l/m 0 min 0 min 36 W/m 16,1 km/h (3 Bft) 95,74 %
30.01.2023 09:24 5,8 C 5,6 C 2,2 C 97 % 1017,1 hPa 0,0 l/m 0 min 0 min 41 W/m 16,1 km/h (3 Bft) 91,49 %
30.01.2023 09:26 5,8 C 5,6 C 2,2 C 97 % 1017,1 hPa 0,0 l/m 0 min 0 min 40 W/m 12,9 km/h (3 Bft) 95,74 %
30.01.2023 09:28 5,9 C 5,6 C 2,2 C 97 % 1017,2 hPa 0,0 l/m 0 min 0 min 41 W/m 16,1 km/h (3 Bft) 95,74 %
30.01.2023 09:30 5,9 C 5,6 C 2,2 C 97 % 1017,2 hPa 0,0 l/m 0 min 0 min 43 W/m 12,9 km/h (3 Bft) 91,30 %
30.01.2023 09:32 5,9 C 5,6 C 2,2 C 97 % 1017,3 hPa 0,0 l/m 0 min 0 min 47 W/m 12,9 km/h (3 Bft) 91,49 %
30.01.2023 09:34 5,9 C 5,6 C 2,2 C 97 % 1017,3 hPa 0,0 l/m 2 min 0 min 91 W/m 6,4 km/h (2 Bft) 95,74 %
30.01.2023 09:36 5,9 C 5,6 C 2,2 C 97 % 1017,3 hPa 0,0 l/m 2 min 0 min 116 W/m 12,9 km/h (3 Bft) 91,49 %
30.01.2023 09:38 5,9 C 5,6 C 2,2 C 97 % 1017,3 hPa 0,0 l/m 2 min 0 min 98 W/m 12,9 km/h (3 Bft) 95,74 %
30.01.2023 09:40 5,9 C 5,6 C 2,2 C 97 % 1017,4 hPa 0,0 l/m 0 min 0 min 77 W/m 12,9 km/h (3 Bft) 95,74 %
30.01.2023 09:42 5,9 C 5,6 C 2,2 C 97 % 1017,3 hPa 0,0 l/m 0 min 0 min 53 W/m 9,7 km/h (2 Bft) 91,49 %
30.01.2023 09:44 5,9 C 5,6 C 2,2 C 97 % 1017,4 hPa 0,0 l/m 0 min 0 min 49 W/m 12,9 km/h (3 Bft) 97,83 %
30.01.2023 09:46 5,9 C 5,6 C 2,2 C 97 % 1017,3 hPa 0,0 l/m 0 min 0 min 96 W/m 16,1 km/h (3 Bft) 97,87 %
30.01.2023 09:48 5,9 C 5,6 C 2,2 C 97 % 1017,3 hPa 0,0 l/m 0 min 0 min 99 W/m 12,9 km/h (3 Bft) 95,74 %
30.01.2023 09:50 5,9 C 5,6 C 2,2 C 97 % 1017,3 hPa 0,0 l/m 2 min 0 min 109 W/m 16,1 km/h (3 Bft) 100,00 %
30.01.2023 09:52 6,0 C 6,1 C 2,2 C 97 % 1017,4 hPa 0,0 l/m 0 min 0 min 107 W/m 32,2 km/h (5 Bft) 100,00 %
30.01.2023 09:54 6,1 C 6,1 C 2,2 C 96 % 1017,4 hPa 0,0 l/m 0 min 0 min 91 W/m 19,3 km/h (3 Bft) 95,74 %
30.01.2023 09:56 6,1 C 6,1 C 2,2 C 96 % 1017,5 hPa 0,0 l/m 2 min 0 min 132 W/m 16,1 km/h (3 Bft) 100,00 %
30.01.2023 09:58 6,1 C 6,1 C 2,2 C 96 % 1017,5 hPa 0,0 l/m 2 min 0 min 135 W/m 22,5 km/h (4 Bft) 97,83 %
30.01.2023 10:00 6,1 C 6,1 C 2,2 C 96 % 1017,5 hPa 0,0 l/m 2 min 0 min 142 W/m 16,1 km/h (3 Bft) 97,87 %
30.01.2023 10:02 6,2 C 6,1 C 2,2 C 96 % 1017,6 hPa 0,0 l/m 2 min 0 min 128 W/m 16,1 km/h (3 Bft) 97,87 %
30.01.2023 10:04 6,2 C 6,1 C 2,2 C 96 % 1017,6 hPa 0,0 l/m 2 min 0 min 185 W/m 16,1 km/h (3 Bft) 97,87 %
30.01.2023 10:06 6,2 C 6,1 C 2,2 C 96 % 1017,6 hPa 0,0 l/m 2 min 0 min 214 W/m 16,1 km/h (3 Bft) 96,55 %
30.01.2023 10:08 6,2 C 6,1 C 2,8 C 95 % 1017,7 hPa 0,0 l/m 2 min 0 min 212 W/m 19,3 km/h (3 Bft) 100,00 %
30.01.2023 10:10 6,2 C 6,1 C 2,8 C 95 % 1017,6 hPa 0,0 l/m 2 min 0 min 211 W/m 32,2 km/h (5 Bft) 100,00 %
30.01.2023 10:12 6,3 C 6,7 C 2,8 C 95 % 1017,7 hPa 0,0 l/m 2 min 0 min 170 W/m 19,3 km/h (3 Bft) 95,74 %
30.01.2023 10:14 6,3 C 6,7 C 2,2 C 95 % 1017,7 hPa 0,0 l/m 2 min 0 min 200 W/m 22,5 km/h (4 Bft) 97,87 %
30.01.2023 10:16 6,3 C 6,7 C 2,2 C 94 % 1017,8 hPa 0,0 l/m 2 min 0 min 215 W/m 19,3 km/h (3 Bft) 97,87 %
30.01.2023 10:18 6,4 C 6,7 C 2,2 C 94 % 1017,8 hPa 0,0 l/m 2 min 0 min 212 W/m 16,1 km/h (3 Bft) 97,87 %
30.01.2023 10:20 6,4 C 6,7 C 2,2 C 93 % 1017,7 hPa 0,0 l/m 2 min 0 min 169 W/m 25,7 km/h (4 Bft) 100,00 %
30.01.2023 10:22 6,4 C 6,7 C 2,2 C 93 % 1017,6 hPa 0,0 l/m 2 min 0 min 174 W/m 19,3 km/h (3 Bft) 100,00 %
30.01.2023 10:24 6,5 C 6,7 C 2,2 C 92 % 1017,6 hPa 0,0 l/m 2 min 0 min 203 W/m 16,1 km/h (3 Bft) 97,83 %
30.01.2023 10:26 6,5 C 6,7 C 2,2 C 92 % 1017,6 hPa 0,0 l/m 2 min 0 min 222 W/m 16,1 km/h (3 Bft) 97,87 %
30.01.2023 10:28 6,5 C 6,7 C 2,2 C 92 % 1017,6 hPa 0,0 l/m 2 min 0 min 218 W/m 16,1 km/h (3 Bft) 100,00 %
30.01.2023 10:30 6,6 C 7,2 C 2,2 C 91 % 1017,7 hPa 0,0 l/m 2 min 0 min 187 W/m 25,7 km/h (4 Bft) 97,87 %
30.01.2023 10:32 6,6 C 7,8 C 2,2 C 91 % 1017,6 hPa 0,0 l/m 2 min 0 min 234 W/m 16,1 km/h (3 Bft) 100,00 %
30.01.2023 10:34 6,7 C 8,9 C 2,2 C 91 % 1017,7 hPa 0,0 l/m 2 min 0 min 246 W/m 12,9 km/h (3 Bft) 97,87 %
30.01.2023 10:36 6,7 C 9,4 C 2,2 C 91 % 1017,6 hPa 0,0 l/m 2 min 0 min 229 W/m 22,5 km/h (4 Bft) 100,00 %
30.01.2023 10:38 6,8 C 10,0 C 2,2 C 90 % 1017,7 hPa 0,0 l/m 2 min 0 min 256 W/m 19,3 km/h (3 Bft) 100,00 %
30.01.2023 10:40 6,8 C 10,0 C 2,2 C 90 % 1017,7 hPa 0,0 l/m 2 min 0 min 256 W/m 16,1 km/h (3 Bft) 95,74 %
30.01.2023 10:42 6,8 C 10,0 C 2,2 C 90 % 1017,7 hPa 0,0 l/m 2 min 0 min 257 W/m 22,5 km/h (4 Bft) 97,87 %
30.01.2023 10:44 6,8 C 10,0 C 2,2 C 89 % 1017,7 hPa 0,0 l/m 2 min 0 min 259 W/m 19,3 km/h (3 Bft) 97,87 %
30.01.2023 10:46 6,8 C 10,6 C 2,2 C 89 % 1017,7 hPa 0,0 l/m 2 min 0 min 264 W/m 12,9 km/h (3 Bft) 100,00 %
30.01.2023 10:48 6,8 C 10,0 C 2,2 C 89 % 1017,7 hPa 0,0 l/m 2 min 0 min 249 W/m 25,7 km/h (4 Bft) 97,87 %
30.01.2023 10:50 6,8 C 9,4 C 2,2 C 88 % 1017,7 hPa 0,0 l/m 2 min 0 min 263 W/m 19,3 km/h (3 Bft) 95,65 %
30.01.2023 10:52 6,8 C 7,8 C 2,2 C 88 % 1017,8 hPa 0,0 l/m 0 min 0 min 146 W/m 25,7 km/h (4 Bft) 95,74 %
30.01.2023 10:54 6,8 C 7,2 C 2,2 C 88 % 1017,8 hPa 0,0 l/m 0 min 0 min 101 W/m 16,1 km/h (3 Bft) 95,74 %
30.01.2023 10:56 6,8 C 7,8 C 2,2 C 88 % 1017,8 hPa 0,0 l/m 0 min 0 min 151 W/m 25,7 km/h (4 Bft) 97,87 %
30.01.2023 10:58 6,8 C 9,4 C 2,2 C 88 % 1017,7 hPa 0,0 l/m 2 min 0 min 179 W/m 19,3 km/h (3 Bft) 95,74 %
30.01.2023 11:00 6,8 C 8,9 C 2,2 C 88 % 1017,8 hPa 0,0 l/m 2 min 0 min 323 W/m 29,0 km/h (5 Bft) 97,87 %
30.01.2023 11:02 6,8 C 7,8 C 2,2 C 87 % 1017,8 hPa 0,0 l/m 2 min 0 min 195 W/m 25,7 km/h (4 Bft) 97,96 %
30.01.2023 11:04 6,8 C 7,2 C 2,2 C 87 % 1017,9 hPa 0,0 l/m 0 min 0 min 131 W/m 16,1 km/h (3 Bft) 97,87 %
30.01.2023 11:06 6,8 C 7,2 C 2,2 C 87 % 1017,9 hPa 0,0 l/m 0 min 0 min 149 W/m 22,5 km/h (4 Bft) 93,62 %
30.01.2023 11:08 6,8 C 7,8 C 2,8 C 87 % 1017,9 hPa 0,0 l/m 2 min 0 min 223 W/m 19,3 km/h (3 Bft) 93,62 %
30.01.2023 11:10 6,8 C 7,2 C 2,8 C 87 % 1018,1 hPa 0,0 l/m 2 min 0 min 179 W/m 16,1 km/h (3 Bft) 97,87 %
30.01.2023 11:12 6,9 C 7,8 C 2,8 C 87 % 1018,1 hPa 0,0 l/m 2 min 0 min 182 W/m 22,5 km/h (4 Bft) 95,74 %
30.01.2023 11:14 6,9 C 7,8 C 2,8 C 87 % 1018,1 hPa 0,0 l/m 0 min 0 min 161 W/m 22,5 km/h (4 Bft) 97,87 %
30.01.2023 11:16 6,9 C 7,2 C 2,8 C 87 % 1018,0 hPa 0,0 l/m 0 min 0 min 122 W/m 22,5 km/h (4 Bft) 95,65 %
30.01.2023 11:18 6,9 C 7,2 C 2,8 C 86 % 1018,0 hPa 0,0 l/m 0 min 0 min 107 W/m 19,3 km/h (3 Bft) 97,87 %
30.01.2023 11:20 6,9 C 6,7 C 2,8 C 86 % 1018,1 hPa 0,0 l/m 0 min 0 min 115 W/m 16,1 km/h (3 Bft) 89,36 %
30.01.2023 11:22 6,9 C 6,7 C 2,8 C 86 % 1018,2 hPa 0,0 l/m 0 min 0 min 123 W/m 19,3 km/h (3 Bft) 93,62 %
30.01.2023 11:24 6,9 C 6,7 C 2,2 C 86 % 1018,2 hPa 0,0 l/m 0 min 0 min 113 W/m 35,4 km/h (5 Bft) 97,87 %
30.01.2023 11:26 6,9 C 6,7 C 2,2 C 85 % 1018,3 hPa 0,0 l/m 0 min 0 min 114 W/m 22,5 km/h (4 Bft) 85,11 %
30.01.2023 11:28 6,9 C 6,7 C 2,2 C 86 % 1018,2 hPa 0,0 l/m 0 min 0 min 99 W/m 29,0 km/h (5 Bft) 93,48 %
30.01.2023 11:30 6,9 C 6,7 C 2,2 C 85 % 1018,2 hPa 0,0 l/m 0 min 0 min 83 W/m 16,1 km/h (3 Bft) 95,74 %
30.01.2023 11:32 6,9 C 6,7 C 2,2 C 85 % 1018,2 hPa 0,0 l/m 0 min 0 min 83 W/m 16,1 km/h (3 Bft) 93,62 %
30.01.2023 11:34 6,9 C 6,7 C 2,2 C 85 % 1018,1 hPa 0,0 l/m 0 min 0 min 88 W/m 16,1 km/h (3 Bft) 89,36 %
30.01.2023 11:36 6,9 C 6,7 C 2,2 C 85 % 1018,2 hPa 0,0 l/m 0 min 0 min 74 W/m 25,7 km/h (4 Bft) 89,36 %
30.01.2023 11:38 6,9 C 6,7 C 2,2 C 85 % 1018,1 hPa 0,0 l/m 0 min 0 min 68 W/m 12,9 km/h (3 Bft) 91,49 %
30.01.2023 11:40 6,8 C 6,7 C 2,2 C 85 % 1018,0 hPa 0,0 l/m 0 min 0 min 62 W/m 19,3 km/h (3 Bft) 93,62 %
30.01.2023 11:42 6,8 C 6,1 C 2,2 C 85 % 1017,9 hPa 0,0 l/m 0 min 0 min 60 W/m 25,7 km/h (4 Bft) 93,48 %
30.01.2023 11:44 6,8 C 6,1 C 2,2 C 85 % 1018,1 hPa 0,0 l/m 0 min 0 min 63 W/m 22,5 km/h (4 Bft) 85,11 %
30.01.2023 11:46 6,8 C 6,1 C 2,2 C 85 % 1018,1 hPa 0,0 l/m 0 min 0 min 47 W/m 12,9 km/h (3 Bft) 82,98 %
30.01.2023 11:48 6,8 C 6,1 C 2,2 C 85 % 1018,2 hPa 0,0 l/m 0 min 0 min 41 W/m 16,1 km/h (3 Bft) 93,62 %
30.01.2023 11:50 6,8 C 6,1 C 2,2 C 84 % 1018,2 hPa 0,0 l/m 0 min 0 min 37 W/m 32,2 km/h (5 Bft) 91,49 %
30.01.2023 11:52 6,8 C 6,1 C 2,2 C 84 % 1018,3 hPa 0,0 l/m 0 min 0 min 40 W/m 25,7 km/h (4 Bft) 91,49 %
30.01.2023 11:54 6,8 C 6,1 C 2,2 C 84 % 1018,2 hPa 0,0 l/m 0 min 0 min 42 W/m 22,5 km/h (4 Bft) 93,62 %
30.01.2023 11:56 6,8 C 6,1 C 2,2 C 84 % 1018,3 hPa 0,0 l/m 0 min 0 min 54 W/m 19,3 km/h (3 Bft) 93,48 %
30.01.2023 11:58 6,8 C 6,1 C 2,2 C 84 % 1018,3 hPa 0,0 l/m 0 min 0 min 50 W/m 22,5 km/h (4 Bft) 93,62 %
30.01.2023 12:00 6,8 C 6,1 C 2,8 C 84 % 1018,3 hPa 0,0 l/m 0 min 0 min 51 W/m 22,5 km/h (4 Bft) 95,74 %
30.01.2023 12:02 6,8 C 6,1 C 2,8 C 84 % 1018,4 hPa 0,0 l/m 0 min 0 min 60 W/m 19,3 km/h (3 Bft) 95,74 %
30.01.2023 12:04 6,8 C 6,1 C 2,8 C 83 % 1018,3 hPa 0,0 l/m 0 min 0 min 53 W/m 19,3 km/h (3 Bft) 93,62 %
30.01.2023 12:07 6,8 C 6,1 C 2,8 C 83 % 1018,3 hPa 0,0 l/m 0 min 0 min 60 W/m 25,7 km/h (4 Bft) 95,77 %
30.01.2023 12:08 6,8 C 6,1 C 2,8 C 83 % 1018,3 hPa 0,0 l/m 0 min 0 min 69 W/m 12,9 km/h (3 Bft) 95,65 %
30.01.2023 12:12 6,8 C 6,7 C 3,3 C 84 % 1018,3 hPa 0,0 l/m 0 min 0 min 99 W/m 22,5 km/h (4 Bft) 97,96 %
30.01.2023 12:14 6,8 C 6,7 C 3,3 C 83 % 1018,2 hPa 0,0 l/m 0 min 0 min 110 W/m 25,7 km/h (4 Bft) 97,87 %
30.01.2023 12:16 6,9 C 6,7 C 3,3 C 84 % 1018,2 hPa 0,0 l/m 0 min 0 min 127 W/m 19,3 km/h (3 Bft) 97,87 %
30.01.2023 12:18 6,9 C 6,7 C 3,3 C 83 % 1018,1 hPa 0,0 l/m 0 min 0 min 141 W/m 16,1 km/h (3 Bft) 97,87 %
30.01.2023 12:20 7,0 C 7,2 C 3,3 C 83 % 1018,2 hPa 0,0 l/m 0 min 0 min 154 W/m 25,7 km/h (4 Bft) 97,83 %
30.01.2023 12:22 7,1 C 7,2 C 3,3 C 83 % 1018,2 hPa 0,0 l/m 0 min 0 min 141 W/m 12,9 km/h (3 Bft) 100,00 %
30.01.2023 12:24 7,1 C 7,2 C 3,3 C 83 % 1018,3 hPa 0,0 l/m 0 min 0 min 139 W/m 19,3 km/h (3 Bft) 100,00 %
30.01.2023 12:26 7,1 C 7,2 C 3,9 C 83 % 1018,3 hPa 0,0 l/m 0 min 0 min 148 W/m 29,0 km/h (5 Bft) 97,87 %
30.01.2023 12:28 7,2 C 7,2 C 3,9 C 83 % 1018,3 hPa 0,0 l/m 0 min 0 min 137 W/m 22,5 km/h (4 Bft) 100,00 %
30.01.2023 12:30 7,2 C 7,2 C 3,9 C 82 % 1018,3 hPa 0,0 l/m 0 min 0 min 114 W/m 25,7 km/h (4 Bft) 97,87 %
30.01.2023 12:32 7,2 C 6,7 C 3,3 C 82 % 1018,3 hPa 0,0 l/m 0 min 0 min 94 W/m 19,3 km/h (3 Bft) 100,00 %
30.01.2023 12:34 7,2 C 6,7 C 3,3 C 82 % 1018,3 hPa 0,0 l/m 0 min 0 min 91 W/m 22,5 km/h (4 Bft) 100,00 %
30.01.2023 12:36 7,2 C 6,7 C 3,3 C 82 % 1018,3 hPa 0,0 l/m 0 min 0 min 88 W/m 22,5 km/h (4 Bft) 95,74 %
30.01.2023 12:38 7,2 C 6,7 C 3,3 C 82 % 1018,3 hPa 0,0 l/m 0 min 0 min 81 W/m 38,6 km/h (5 Bft) 100,00 %
30.01.2023 12:40 7,2 C 6,7 C 3,3 C 81 % 1018,4 hPa 0,0 l/m 0 min 0 min 82 W/m 25,7 km/h (4 Bft) 97,87 %
30.01.2023 12:42 7,2 C 6,7 C 3,3 C 81 % 1018,2 hPa 0,0 l/m 0 min 0 min 84 W/m 19,3 km/h (3 Bft) 100,00 %
30.01.2023 12:44 7,1 C 6,7 C 3,3 C 81 % 1018,2 hPa 0,0 l/m 0 min 0 min 73 W/m 35,4 km/h (5 Bft) 100,00 %
30.01.2023 12:46 7,1 C 6,7 C 3,3 C 80 % 1018,3 hPa 0,0 l/m 0 min 0 min 71 W/m 16,1 km/h (3 Bft) 100,00 %
30.01.2023 12:48 7,1 C 6,7 C 3,3 C 81 % 1018,4 hPa 0,0 l/m 0 min 0 min 77 W/m 22,5 km/h (4 Bft) 100,00 %
30.01.2023 12:50 7,1 C 6,7 C 3,3 C 81 % 1018,4 hPa 0,0 l/m 0 min 0 min 69 W/m 32,2 km/h (5 Bft) 97,87 %
30.01.2023 12:52 7,1 C 6,7 C 3,3 C 81 % 1018,4 hPa 0,0 l/m 0 min 0 min 67 W/m 9,7 km/h (2 Bft) 47,37 %
30.01.2023 12:54 7,1 C 6,7 C 3,3 C 81 % 1018,3 hPa 0,0 l/m 0 min 0 min 80 W/m 29,0 km/h (5 Bft) 100,00 %
30.01.2023 12:56 7,1 C 6,7 C 3,3 C 80 % 1018,3 hPa 0,0 l/m 0 min 0 min 65 W/m 19,3 km/h (3 Bft) 100,00 %
30.01.2023 12:58 7,1 C 6,7 C 3,3 C 80 % 1018,4 hPa 0,0 l/m 0 min 0 min 58 W/m 19,3 km/h (3 Bft) 100,00 %
30.01.2023 13:00 7,1 C 6,7 C 3,3 C 80 % 1018,3 hPa 0,0 l/m 0 min 0 min 62 W/m 25,7 km/h (4 Bft) 100,00 %
30.01.2023 13:02 7,1 C 6,7 C 3,3 C 79 % 1018,4 hPa 0,0 l/m 0 min 0 min 53 W/m 29,0 km/h (5 Bft) 93,62 %
30.01.2023 13:04 7,1 C 6,7 C 3,3 C 79 % 1018,3 hPa 0,0 l/m 0 min 0 min 46 W/m 22,5 km/h (4 Bft) 100,00 %
30.01.2023 13:06 7,1 C 6,7 C 3,3 C 80 % 1018,4 hPa 0,0 l/m 0 min 2 min 43 W/m 25,7 km/h (4 Bft) 100,00 %
30.01.2023 13:08 7,1 C 6,7 C 3,3 C 80 % 1018,5 hPa 0,0 l/m 0 min 0 min 55 W/m 19,3 km/h (3 Bft) 100,00 %
30.01.2023 13:10 7,1 C 6,7 C 3,3 C 80 % 1018,4 hPa 0,0 l/m 0 min 0 min 67 W/m 22,5 km/h (4 Bft) 97,87 %
30.01.2023 13:12 7,1 C 6,7 C 3,3 C 80 % 1018,5 hPa 0,0 l/m 0 min 0 min 67 W/m 22,5 km/h (4 Bft) 93,62 %
30.01.2023 13:14 7,1 C 6,7 C 3,3 C 80 % 1018,5 hPa 0,0 l/m 0 min 0 min 114 W/m 29,0 km/h (5 Bft) 100,00 %
30.01.2023 13:16 7,1 C 6,7 C 3,3 C 80 % 1018,4 hPa 0,0 l/m 0 min 0 min 111 W/m 25,7 km/h (4 Bft) 97,87 %
30.01.2023 13:18 7,1 C 6,7 C 3,3 C 79 % 1018,3 hPa 0,0 l/m 0 min 0 min 95 W/m 19,3 km/h (3 Bft) 97,87 %
30.01.2023 13:20 7,1 C 6,7 C 3,3 C 79 % 1018,3 hPa 0,0 l/m 0 min 0 min 106 W/m 16,1 km/h (3 Bft) 97,87 %
30.01.2023 13:22 7,2 C 6,7 C 3,3 C 79 % 1018,3 hPa 0,0 l/m 0 min 0 min 102 W/m 29,0 km/h (5 Bft) 100,00 %
30.01.2023 13:24 7,2 C 6,7 C 3,3 C 79 % 1018,2 hPa 0,0 l/m 0 min 0 min 105 W/m 32,2 km/h (5 Bft) 100,00 %
30.01.2023 13:26 7,2 C 7,2 C 3,3 C 79 % 1018,3 hPa 0,0 l/m 0 min 0 min 122 W/m 19,3 km/h (3 Bft) 100,00 %
30.01.2023 13:28 7,2 C 7,2 C 3,3 C 79 % 1018,3 hPa 0,0 l/m 0 min 0 min 124 W/m 19,3 km/h (3 Bft) 97,83 %
30.01.2023 13:30 7,2 C 7,2 C 3,3 C 79 % 1018,3 hPa 0,0 l/m 0 min 0 min 115 W/m 22,5 km/h (4 Bft) 97,87 %
30.01.2023 13:32 7,2 C 7,2 C 3,3 C 79 % 1018,3 hPa 0,0 l/m 0 min 0 min 109 W/m 25,7 km/h (4 Bft) 97,87 %
30.01.2023 13:34 7,2 C 7,8 C 3,3 C 79 % 1018,3 hPa 0,0 l/m 2 min 0 min 200 W/m 29,0 km/h (5 Bft) 97,87 %
30.01.2023 13:36 7,3 C 8,9 C 3,3 C 79 % 1018,2 hPa 0,0 l/m 2 min 0 min 270 W/m 25,7 km/h (4 Bft) 98,15 %
30.01.2023 13:38 7,4 C 8,3 C 3,9 C 78 % 1018,2 hPa 0,0 l/m 0 min 0 min 180 W/m 16,1 km/h (3 Bft) 98,00 %
30.01.2023 13:40 7,6 C 8,3 C 3,9 C 78 % 1018,3 hPa 0,0 l/m 0 min 0 min 191 W/m 22,5 km/h (4 Bft) 97,92 %
30.01.2023 13:42 7,6 C 8,3 C 3,9 C 78 % 1018,4 hPa 0,0 l/m 2 min 0 min 212 W/m 16,1 km/h (3 Bft) 97,87 %
30.01.2023 13:44 7,6 C 8,3 C 3,9 C 78 % 1018,4 hPa 0,0 l/m 0 min 0 min 149 W/m 22,5 km/h (4 Bft) 95,74 %
30.01.2023 13:46 7,6 C 7,8 C 3,9 C 78 % 1018,4 hPa 0,0 l/m 0 min 0 min 137 W/m 29,0 km/h (5 Bft) 97,14 %
30.01.2023 13:48 7,6 C 7,2 C 3,9 C 77 % 1018,3 hPa 0,0 l/m 0 min 0 min 115 W/m 22,5 km/h (4 Bft) 95,74 %
30.01.2023 13:50 7,6 C 7,8 C 3,9 C 77 % 1018,4 hPa 0,0 l/m 0 min 0 min 164 W/m 32,2 km/h (5 Bft) 98,15 %
30.01.2023 13:52 7,6 C 7,8 C 3,9 C 78 % 1018,4 hPa 0,0 l/m 0 min 0 min 170 W/m 22,5 km/h (4 Bft) 92,00 %
30.01.2023 13:54 7,6 C 7,8 C 3,9 C 77 % 1018,4 hPa 0,0 l/m 0 min 0 min 150 W/m 22,5 km/h (4 Bft) 95,83 %
30.01.2023 13:56 7,7 C 7,2 C 3,9 C 77 % 1018,5 hPa 0,0 l/m 0 min 0 min 114 W/m 19,3 km/h (3 Bft) 95,74 %
30.01.2023 13:58 7,6 C 7,2 C 3,9 C 77 % 1018,4 hPa 0,0 l/m 0 min 0 min 114 W/m 16,1 km/h (3 Bft) 93,62 %
30.01.2023 14:00 7,6 C 7,2 C 3,9 C 78 % 1018,4 hPa 0,0 l/m 0 min 0 min 122 W/m 35,4 km/h (5 Bft) 97,87 %
30.01.2023 14:02 7,6 C 7,2 C 3,9 C 78 % 1018,5 hPa 0,0 l/m 0 min 0 min 155 W/m 29,0 km/h (5 Bft) 95,74 %
30.01.2023 14:04 7,6 C 7,2 C 3,9 C 78 % 1018,5 hPa 0,0 l/m 0 min 0 min 140 W/m 32,2 km/h (5 Bft) 91,30 %
30.01.2023 14:06 7,6 C 7,2 C 3,9 C 77 % 1018,6 hPa 0,0 l/m 0 min 0 min 129 W/m 22,5 km/h (4 Bft) 95,74 %
30.01.2023 14:08 7,6 C 7,2 C 3,9 C 78 % 1018,6 hPa 0,0 l/m 0 min 0 min 109 W/m 19,3 km/h (3 Bft) 95,74 %
30.01.2023 14:10 7,6 C 7,2 C 3,9 C 78 % 1018,6 hPa 0,0 l/m 0 min 0 min 94 W/m 19,3 km/h (3 Bft) 93,62 %
30.01.2023 14:12 7,6 C 7,2 C 3,3 C 78 % 1018,6 hPa 0,0 l/m 0 min 0 min 89 W/m 19,3 km/h (3 Bft) 95,74 %
30.01.2023 14:14 7,6 C 7,2 C 3,3 C 78 % 1018,6 hPa 0,0 l/m 0 min 0 min 94 W/m 22,5 km/h (4 Bft) 91,49 %
30.01.2023 14:16 7,6 C 7,2 C 3,3 C 78 % 1018,7 hPa 0,0 l/m 0 min 0 min 95 W/m 32,2 km/h (5 Bft) 93,48 %
30.01.2023 14:18 7,6 C 7,2 C 3,3 C 77 % 1018,8 hPa 0,0 l/m 0 min 0 min 64 W/m 29,0 km/h (5 Bft) 95,74 %
30.01.2023 14:20 7,6 C 7,2 C 3,3 C 77 % 1018,8 hPa 0,0 l/m 0 min 0 min 80 W/m 19,3 km/h (3 Bft) 95,74 %
30.01.2023 14:22 7,6 C 7,2 C 3,3 C 78 % 1018,8 hPa 0,0 l/m 0 min 0 min 98 W/m 32,2 km/h (5 Bft) 93,62 %
30.01.2023 14:24 7,6 C 7,2 C 3,3 C 77 % 1018,9 hPa 0,0 l/m 0 min 0 min 65 W/m 22,5 km/h (4 Bft) 95,74 %
30.01.2023 14:26 7,6 C 7,2 C 3,3 C 77 % 1018,9 hPa 0,0 l/m 0 min 0 min 75 W/m 22,5 km/h (4 Bft) 95,74 %
30.01.2023 14:28 7,6 C 7,2 C 3,3 C 77 % 1018,8 hPa 0,0 l/m 0 min 0 min 81 W/m 25,7 km/h (4 Bft) 93,62 %
30.01.2023 14:30 7,6 C 7,2 C 3,3 C 77 % 1018,9 hPa 0,0 l/m 0 min 0 min 73 W/m 25,7 km/h (4 Bft) 95,65 %
30.01.2023 14:32 7,6 C 7,2 C 3,3 C 77 % 1019,0 hPa 0,0 l/m 0 min 0 min 62 W/m 25,7 km/h (4 Bft) 95,74 %
30.01.2023 14:34 7,5 C 7,2 C 3,3 C 77 % 1019,0 hPa 0,0 l/m 0 min 0 min 72 W/m 38,6 km/h (5 Bft) 93,62 %
30.01.2023 14:36 7,5 C 7,2 C 3,3 C 77 % 1019,0 hPa 0,0 l/m 0 min 0 min 74 W/m 32,2 km/h (5 Bft) 95,74 %
30.01.2023 14:38 7,5 C 7,2 C 3,3 C 76 % 1019,1 hPa 0,0 l/m 0 min 0 min 76 W/m 35,4 km/h (5 Bft) 95,74 %
30.01.2023 14:40 7,5 C 7,2 C 3,3 C 77 % 1019,1 hPa 0,0 l/m 0 min 0 min 68 W/m 41,8 km/h (6 Bft) 87,23 %
30.01.2023 14:45 7,5 C 7,2 C 3,3 C 77 % 1019,1 hPa 0,0 l/m 0 min 0 min 79 W/m 38,6 km/h (5 Bft) 98,21 %
30.01.2023 14:46 7,5 C 7,2 C 3,3 C 77 % 1019,1 hPa 0,0 l/m 0 min 0 min 99 W/m 19,3 km/h (3 Bft) 86,96 %
30.01.2023 14:48 7,5 C 7,2 C 3,3 C 76 % 1019,1 hPa 0,0 l/m 0 min 0 min 110 W/m 41,8 km/h (6 Bft) 97,14 %
30.01.2023 14:50 7,5 C 7,2 C 3,3 C 77 % 1019,1 hPa 0,0 l/m 0 min 0 min 126 W/m 32,2 km/h (5 Bft) 94,92 %
30.01.2023 14:52 7,6 C 7,2 C 3,3 C 77 % 1019,1 hPa 0,0 l/m 0 min 0 min 130 W/m 22,5 km/h (4 Bft) 95,74 %
30.01.2023 14:54 7,6 C 7,2 C 3,3 C 77 % 1019,1 hPa 0,0 l/m 0 min 0 min 109 W/m 19,3 km/h (3 Bft) 95,74 %
30.01.2023 14:56 7,6 C 7,2 C 3,3 C 77 % 1019,2 hPa 0,0 l/m 0 min 0 min 104 W/m 16,1 km/h (3 Bft) 95,74 %
30.01.2023 14:58 7,6 C 7,2 C 3,3 C 77 % 1019,2 hPa 0,0 l/m 0 min 0 min 102 W/m 22,5 km/h (4 Bft) 97,83 %
30.01.2023 15:00 7,6 C 7,2 C 3,3 C 77 % 1019,3 hPa 0,0 l/m 0 min 0 min 100 W/m 25,7 km/h (4 Bft) 100,00 %
30.01.2023 15:02 7,6 C 7,2 C 3,3 C 77 % 1019,3 hPa 0,0 l/m 0 min 0 min 76 W/m 25,7 km/h (4 Bft) 100,00 %
30.01.2023 15:04 7,6 C 7,2 C 3,3 C 77 % 1019,4 hPa 0,0 l/m 0 min 0 min 96 W/m 19,3 km/h (3 Bft) 100,00 %
30.01.2023 15:06 7,6 C 7,2 C 3,3 C 77 % 1019,4 hPa 0,0 l/m 0 min 0 min 94 W/m 25,7 km/h (4 Bft) 100,00 %
30.01.2023 15:08 7,6 C 7,2 C 3,3 C 77 % 1019,4 hPa 0,0 l/m 0 min 0 min 88 W/m 19,3 km/h (3 Bft) 97,87 %
30.01.2023 15:10 7,6 C 7,2 C 3,3 C 77 % 1019,4 hPa 0,0 l/m 0 min 0 min 92 W/m 22,5 km/h (4 Bft) 100,00 %
30.01.2023 15:12 7,6 C 7,2 C 3,3 C 77 % 1019,5 hPa 0,0 l/m 0 min 0 min 101 W/m 22,5 km/h (4 Bft) 100,00 %
30.01.2023 15:14 7,6 C 7,2 C 3,3 C 77 % 1019,4 hPa 0,0 l/m 0 min 0 min 91 W/m 16,1 km/h (3 Bft) 98,28 %
30.01.2023 15:16 7,6 C 7,2 C 3,3 C 77 % 1019,5 hPa 0,0 l/m 0 min 0 min 99 W/m 19,3 km/h (3 Bft) 95,74 %
30.01.2023 15:18 7,6 C 7,2 C 3,3 C 77 % 1019,5 hPa 0,0 l/m 0 min 0 min 122 W/m 16,1 km/h (3 Bft) 100,00 %
30.01.2023 15:20 7,6 C 7,2 C 3,3 C 78 % 1019,5 hPa 0,0 l/m 0 min 0 min 124 W/m 19,3 km/h (3 Bft) 100,00 %
30.01.2023 15:22 7,6 C 7,2 C 3,3 C 78 % 1019,5 hPa 0,0 l/m 0 min 0 min 125 W/m 22,5 km/h (4 Bft) 100,00 %
30.01.2023 15:24 7,6 C 7,2 C 3,3 C 78 % 1019,5 hPa 0,0 l/m 0 min 0 min 93 W/m 12,9 km/h (3 Bft) 100,00 %
30.01.2023 15:26 7,6 C 7,2 C 3,3 C 78 % 1019,5 hPa 0,0 l/m 0 min 0 min 81 W/m 16,1 km/h (3 Bft) 97,87 %
30.01.2023 15:28 7,6 C 7,2 C 3,3 C 78 % 1019,6 hPa 0,0 l/m 0 min 0 min 81 W/m 19,3 km/h (3 Bft) 100,00 %
30.01.2023 15:30 7,6 C 7,2 C 3,3 C 78 % 1019,6 hPa 0,0 l/m 0 min 0 min 85 W/m 22,5 km/h (4 Bft) 100,00 %
30.01.2023 15:32 7,5 C 7,2 C 3,3 C 78 % 1019,6 hPa 0,0 l/m 0 min 0 min 71 W/m 16,1 km/h (3 Bft) 97,87 %
30.01.2023 15:34 7,5 C 7,2 C 3,3 C 78 % 1019,7 hPa 0,0 l/m 0 min 0 min 62 W/m 16,1 km/h (3 Bft) 100,00 %
30.01.2023 15:36 7,5 C 7,2 C 3,3 C 78 % 1019,8 hPa 0,0 l/m 0 min 0 min 56 W/m 22,5 km/h (4 Bft) 100,00 %
30.01.2023 15:38 7,5 C 6,7 C 3,3 C 78 % 1019,8 hPa 0,0 l/m 0 min 0 min 53 W/m 12,9 km/h (3 Bft) 97,87 %
30.01.2023 15:40 7,4 C 6,7 C 3,3 C 78 % 1019,7 hPa 0,0 l/m 0 min 0 min 47 W/m 9,7 km/h (2 Bft) 93,62 %
30.01.2023 15:42 7,4 C 6,7 C 3,3 C 78 % 1019,8 hPa 0,0 l/m 0 min 0 min 44 W/m 12,9 km/h (3 Bft) 95,74 %
30.01.2023 15:44 7,4 C 6,7 C 3,3 C 78 % 1019,8 hPa 0,0 l/m 0 min 0 min 37 W/m 22,5 km/h (4 Bft) 97,83 %
30.01.2023 15:46 7,4 C 6,7 C 3,3 C 78 % 1019,8 hPa 0,0 l/m 0 min 0 min 29 W/m 16,1 km/h (3 Bft) 100,00 %
30.01.2023 15:48 7,4 C 6,7 C 3,3 C 78 % 1019,9 hPa 0,0 l/m 0 min 0 min 21 W/m 25,7 km/h (4 Bft) 97,87 %
30.01.2023 15:50 7,3 C 6,7 C 2,8 C 79 % 1019,9 hPa 0,0 l/m 0 min 2 min 24 W/m 22,5 km/h (4 Bft) 93,62 %
30.01.2023 15:52 7,3 C 6,7 C 2,8 C 80 % 1019,9 hPa 0,0 l/m 0 min 2 min 26 W/m 16,1 km/h (3 Bft) 48,72 %
30.01.2023 15:54 7,2 C 6,7 C 2,8 C 80 % 1019,9 hPa 0,0 l/m 0 min 2 min 26 W/m 19,3 km/h (3 Bft) 95,74 %
30.01.2023 15:56 7,2 C 6,7 C 2,8 C 81 % 1020,0 hPa 0,0 l/m 0 min 2 min 25 W/m 19,3 km/h (3 Bft) 93,48 %
30.01.2023 15:58 7,1 C 6,7 C 2,8 C 81 % 1020,1 hPa 0,0 l/m 0 min 0 min 24 W/m 16,1 km/h (3 Bft) 95,74 %
30.01.2023 16:00 7,1 C 6,7 C 2,8 C 81 % 1020,0 hPa 0,0 l/m 0 min 2 min 30 W/m 32,2 km/h (5 Bft) 97,87 %
30.01.2023 16:02 7,1 C 6,7 C 2,8 C 81 % 1020,0 hPa 0,0 l/m 0 min 2 min 40 W/m 35,4 km/h (5 Bft) 93,62 %
30.01.2023 16:04 7,1 C 6,1 C 2,8 C 81 % 1020,1 hPa 0,0 l/m 0 min 2 min 42 W/m 22,5 km/h (4 Bft) 95,74 %
30.01.2023 16:06 7,0 C 6,1 C 2,8 C 82 % 1020,2 hPa 0,0 l/m 0 min 0 min 42 W/m 9,7 km/h (2 Bft) 96,55 %
30.01.2023 16:08 7,0 C 6,1 C 2,8 C 82 % 1020,1 hPa 0,0 l/m 0 min 0 min 40 W/m 12,9 km/h (3 Bft) 93,62 %
30.01.2023 16:10 6,9 C 6,1 C 2,8 C 82 % 1020,3 hPa 0,0 l/m 0 min 0 min 39 W/m 19,3 km/h (3 Bft) 97,14 %
30.01.2023 16:12 6,9 C 6,7 C 2,8 C 82 % 1020,2 hPa 0,0 l/m 0 min 0 min 39 W/m 19,3 km/h (3 Bft) 93,62 %
30.01.2023 16:14 6,9 C 6,7 C 2,8 C 82 % 1020,3 hPa 0,0 l/m 0 min 0 min 42 W/m 16,1 km/h (3 Bft) 93,62 %
30.01.2023 16:16 6,9 C 6,7 C 2,8 C 82 % 1020,4 hPa 0,0 l/m 0 min 0 min 46 W/m 32,2 km/h (5 Bft) 93,62 %
30.01.2023 16:18 7,0 C 6,7 C 2,8 C 82 % 1020,4 hPa 0,0 l/m 0 min 0 min 46 W/m 19,3 km/h (3 Bft) 91,49 %
30.01.2023 16:20 7,1 C 6,7 C 2,8 C 81 % 1020,4 hPa 0,0 l/m 0 min 0 min 48 W/m 16,1 km/h (3 Bft) 95,74 %
30.01.2023 16:22 7,1 C 6,7 C 2,8 C 81 % 1020,5 hPa 0,0 l/m 0 min 0 min 46 W/m 16,1 km/h (3 Bft) 100,00 %
30.01.2023 16:24 7,1 C 6,7 C 2,8 C 81 % 1020,6 hPa 0,0 l/m 0 min 0 min 41 W/m 25,7 km/h (4 Bft) 100,00 %
30.01.2023 16:26 7,1 C 6,7 C 2,8 C 81 % 1020,6 hPa 0,0 l/m 0 min 0 min 42 W/m 32,2 km/h (5 Bft) 89,36 %
30.01.2023 16:28 7,1 C 6,7 C 2,8 C 81 % 1020,6 hPa 0,0 l/m 0 min 0 min 42 W/m 19,3 km/h (3 Bft) 85,11 %
30.01.2023 16:30 7,1 C 6,7 C 2,8 C 81 % 1020,7 hPa 0,0 l/m 0 min 0 min 34 W/m 12,9 km/h (3 Bft) 95,74 %
30.01.2023 16:32 7,1 C 6,7 C 2,8 C 81 % 1020,7 hPa 0,0 l/m 0 min 0 min 31 W/m 16,1 km/h (3 Bft) 97,87 %
30.01.2023 16:34 7,0 C 6,1 C 2,8 C 81 % 1020,8 hPa 0,0 l/m 0 min 0 min 24 W/m 16,1 km/h (3 Bft) 100,00 %
30.01.2023 16:36 7,0 C 6,1 C 2,8 C 82 % 1020,8 hPa 0,0 l/m 0 min 0 min 17 W/m 19,3 km/h (3 Bft) 97,83 %
30.01.2023 16:38 6,9 C 6,1 C 2,8 C 82 % 1020,8 hPa 0,0 l/m 0 min 0 min 18 W/m 16,1 km/h (3 Bft) 97,87 %
30.01.2023 16:40 6,8 C 6,1 C 2,8 C 82 % 1020,8 hPa 0,0 l/m 0 min 0 min 24 W/m 16,1 km/h (3 Bft) 100,00 %
30.01.2023 16:42 6,8 C 6,1 C 2,2 C 82 % 1020,8 hPa 0,0 l/m 0 min 0 min 28 W/m 16,1 km/h (3 Bft) 97,87 %
30.01.2023 16:44 6,8 C 6,1 C 2,8 C 82 % 1020,9 hPa 0,0 l/m 0 min 0 min 36 W/m 16,1 km/h (3 Bft) 97,87 %
30.01.2023 16:46 6,7 C 6,1 C 2,2 C 82 % 1020,9 hPa 0,0 l/m 2 min 0 min 38 W/m 16,1 km/h (3 Bft) 100,00 %
30.01.2023 16:48 6,7 C 6,1 C 2,2 C 82 % 1020,9 hPa 0,0 l/m 0 min 0 min 29 W/m 12,9 km/h (3 Bft) 100,00 %
30.01.2023 16:50 6,7 C 6,1 C 2,2 C 82 % 1021,0 hPa 0,0 l/m 0 min 0 min 23 W/m 12,9 km/h (3 Bft) 100,00 %
30.01.2023 16:52 6,7 C 6,1 C 2,2 C 82 % 1021,0 hPa 0,0 l/m 0 min 0 min 20 W/m 16,1 km/h (3 Bft) 95,74 %
30.01.2023 16:54 6,7 C 6,1 C 2,2 C 82 % 1021,0 hPa 0,0 l/m 0 min 0 min 18 W/m 16,1 km/h (3 Bft) 95,74 %
30.01.2023 16:56 6,7 C 6,1 C 2,2 C 82 % 1021,0 hPa 0,0 l/m 0 min 0 min 14 W/m 12,9 km/h (3 Bft) 100,00 %
30.01.2023 16:58 6,7 C 6,1 C 2,2 C 82 % 1021,0 hPa 0,0 l/m 0 min 0 min 14 W/m 12,9 km/h (3 Bft) 97,87 %
30.01.2023 17:00 6,6 C 6,1 C 2,2 C 82 % 1021,1 hPa 0,0 l/m 0 min 0 min 14 W/m 22,5 km/h (4 Bft) 100,00 %
30.01.2023 17:02 6,6 C 6,1 C 2,2 C 82 % 1021,0 hPa 0,0 l/m 0 min 0 min 16 W/m 19,3 km/h (3 Bft) 95,65 %
30.01.2023 17:04 6,6 C 6,1 C 2,2 C 82 % 1021,2 hPa 0,0 l/m 0 min 0 min 16 W/m 12,9 km/h (3 Bft) 93,62 %
30.01.2023 17:06 6,6 C 5,6 C 2,2 C 82 % 1021,2 hPa 0,0 l/m 0 min 0 min 13 W/m 16,1 km/h (3 Bft) 94,92 %
30.01.2023 17:08 6,5 C 6,1 C 2,2 C 82 % 1021,3 hPa 0,0 l/m 0 min 0 min 11 W/m 19,3 km/h (3 Bft) 94,29 %
30.01.2023 17:10 6,5 C 5,6 C 2,2 C 82 % 1021,2 hPa 0,0 l/m 0 min 0 min 10 W/m 19,3 km/h (3 Bft) 95,74 %
30.01.2023 17:12 6,5 C 5,6 C 2,2 C 82 % 1021,2 hPa 0,0 l/m 0 min 0 min 8 W/m 19,3 km/h (3 Bft) 95,74 %
30.01.2023 17:14 6,5 C 6,1 C 2,2 C 82 % 1021,3 hPa 0,0 l/m 0 min 0 min 6 W/m 19,3 km/h (3 Bft) 93,62 %
30.01.2023 17:16 6,5 C 5,6 C 2,2 C 82 % 1021,3 hPa 0,0 l/m 0 min 0 min 5 W/m 19,3 km/h (3 Bft) 95,65 %
30.01.2023 17:18 6,5 C 5,6 C 2,2 C 82 % 1021,3 hPa 0,0 l/m 0 min 0 min 5 W/m 16,1 km/h (3 Bft) 89,36 %
30.01.2023 17:20 6,5 C 5,6 C 2,2 C 82 % 1021,3 hPa 0,0 l/m 0 min 0 min 1 W/m 16,1 km/h (3 Bft) 95,74 %
30.01.2023 17:22 6,5 C 5,6 C 2,2 C 82 % 1021,4 hPa 0,0 l/m 0 min 0 min 0 W/m 12,9 km/h (3 Bft) 93,62 %
30.01.2023 17:24 6,5 C 5,6 C 2,2 C 82 % 1021,4 hPa 0,0 l/m 0 min 0 min 0 W/m 16,1 km/h (3 Bft) 95,74 %
30.01.2023 17:26 6,5 C 6,1 C 2,2 C 82 % 1021,5 hPa 0,0 l/m 0 min 0 min 0 W/m 12,9 km/h (3 Bft) 95,74 %
30.01.2023 17:28 6,5 C 6,1 C 2,2 C 82 % 1021,5 hPa 0,0 l/m 0 min 0 min 0 W/m 16,1 km/h (3 Bft) 93,62 %
30.01.2023 17:30 6,5 C 6,1 C 2,2 C 82 % 1021,5 hPa 0,0 l/m 0 min 0 min 0 W/m 16,1 km/h (3 Bft) 95,65 %
30.01.2023 17:32 6,6 C 6,1 C 2,2 C 82 % 1021,6 hPa 0,0 l/m 0 min 0 min 0 W/m 16,1 km/h (3 Bft) 95,74 %
30.01.2023 17:34 6,5 C 6,1 C 2,2 C 82 % 1021,6 hPa 0,0 l/m 0 min 0 min 0 W/m 12,9 km/h (3 Bft) 91,49 %
30.01.2023 17:36 6,6 C 6,1 C 2,2 C 82 % 1021,6 hPa 0,0 l/m 0 min 0 min 0 W/m 9,7 km/h (2 Bft) 93,62 %
30.01.2023 17:38 6,5 C 6,1 C 2,2 C 82 % 1021,6 hPa 0,0 l/m 0 min 0 min 0 W/m 12,9 km/h (3 Bft) 97,87 %
30.01.2023 17:40 6,5 C 6,1 C 2,2 C 82 % 1021,7 hPa 0,0 l/m 0 min 0 min 0 W/m 16,1 km/h (3 Bft) 95,74 %
30.01.2023 17:42 6,5 C 6,1 C 2,2 C 82 % 1021,7 hPa 0,0 l/m 0 min 0 min 0 W/m 12,9 km/h (3 Bft) 97,83 %
30.01.2023 17:44 6,6 C 6,1 C 2,2 C 82 % 1021,8 hPa 0,0 l/m 0 min 0 min 0 W/m 19,3 km/h (3 Bft) 95,74 %
30.01.2023 17:46 6,6 C 6,1 C 2,2 C 82 % 1021,8 hPa 0,0 l/m 0 min 0 min 0 W/m 19,3 km/h (3 Bft) 93,62 %
30.01.2023 17:48 6,6 C 6,1 C 2,2 C 82 % 1021,8 hPa 0,0 l/m 0 min 0 min 0 W/m 22,5 km/h (4 Bft) 95,74 %
30.01.2023 17:50 6,6 C 6,1 C 2,2 C 82 % 1021,9 hPa 0,0 l/m 0 min 0 min 0 W/m 19,3 km/h (3 Bft) 95,74 %
30.01.2023 17:52 6,6 C 6,1 C 2,2 C 82 % 1021,9 hPa 0,0 l/m 0 min 0 min 0 W/m 19,3 km/h (3 Bft) 95,74 %
30.01.2023 17:54 6,6 C 5,6 C 2,2 C 82 % 1021,9 hPa 0,0 l/m 0 min 0 min 0 W/m 12,9 km/h (3 Bft) 97,87 %
30.01.2023 17:56 6,5 C 5,6 C 2,2 C 82 % 1022,0 hPa 0,0 l/m 0 min 0 min 0 W/m 6,4 km/h (2 Bft) 95,74 %
30.01.2023 17:58 6,5 C 5,6 C 2,2 C 82 % 1022,1 hPa 0,0 l/m 0 min 0 min 0 W/m 12,9 km/h (3 Bft) 93,48 %
30.01.2023 18:00 6,5 C 5,6 C 2,2 C 82 % 1022,1 hPa 0,0 l/m 0 min 0 min 0 W/m 16,1 km/h (3 Bft) 97,87 %
30.01.2023 18:02 6,5 C 5,6 C 2,2 C 82 % 1022,1 hPa 0,0 l/m 0 min 0 min 0 W/m 12,9 km/h (3 Bft) 95,74 %
30.01.2023 18:04 6,5 C 6,1 C 2,2 C 82 % 1022,0 hPa 0,0 l/m 0 min 0 min 0 W/m 12,9 km/h (3 Bft) 97,87 %
30.01.2023 18:07 6,5 C 6,1 C 2,2 C 82 % 1022,1 hPa 0,0 l/m 0 min 0 min 0 W/m 32,2 km/h (5 Bft) 94,29 %
30.01.2023 18:08 6,5 C 6,1 C 2,2 C 82 % 1022,1 hPa 0,0 l/m 0 min 0 min 0 W/m 16,1 km/h (3 Bft) 95,83 %
30.01.2023 18:10 6,6 C 6,1 C 2,2 C 82 % 1022,1 hPa 0,0 l/m 0 min 0 min 0 W/m 19,3 km/h (3 Bft) 97,83 %
30.01.2023 18:12 6,6 C 6,1 C 2,2 C 82 % 1022,2 hPa 0,0 l/m 0 min 0 min 0 W/m 19,3 km/h (3 Bft) 97,87 %
30.01.2023 18:14 6,6 C 6,1 C 2,2 C 82 % 1022,2 hPa 0,0 l/m 0 min 0 min 0 W/m 16,1 km/h (3 Bft) 97,87 %
30.01.2023 18:16 6,6 C 6,1 C 2,2 C 82 % 1022,3 hPa 0,0 l/m 0 min 0 min 0 W/m 12,9 km/h (3 Bft) 100,00 %
30.01.2023 18:18 6,6 C 6,1 C 2,2 C 82 % 1022,3 hPa 0,0 l/m 0 min 0 min 0 W/m 9,7 km/h (2 Bft) 100,00 %
30.01.2023 18:20 6,6 C 6,1 C 2,2 C 82 % 1022,3 hPa 0,0 l/m 0 min 0 min 0 W/m 19,3 km/h (3 Bft) 100,00 %
30.01.2023 18:22 6,6 C 5,6 C 2,2 C 82 % 1022,4 hPa 0,0 l/m 0 min 0 min 0 W/m 16,1 km/h (3 Bft) 100,00 %
30.01.2023 18:24 6,5 C 5,6 C 2,2 C 82 % 1022,4 hPa 0,0 l/m 0 min 0 min 0 W/m 12,9 km/h (3 Bft) 100,00 %
30.01.2023 18:26 6,5 C 5,6 C 2,2 C 82 % 1022,3 hPa 0,0 l/m 0 min 0 min 0 W/m 19,3 km/h (3 Bft) 100,00 %
30.01.2023 18:28 6,5 C 5,6 C 2,2 C 82 % 1022,4 hPa 0,0 l/m 0 min 0 min 0 W/m 9,7 km/h (2 Bft) 100,00 %
30.01.2023 18:30 6,5 C 5,6 C 2,2 C 82 % 1022,5 hPa 0,0 l/m 0 min 0 min 0 W/m 16,1 km/h (3 Bft) 100,00 %
30.01.2023 18:32 6,5 C 5,6 C 2,2 C 82 % 1022,5 hPa 0,0 l/m 0 min 0 min 0 W/m 19,3 km/h (3 Bft) 100,00 %
30.01.2023 18:34 6,5 C 5,6 C 2,2 C 82 % 1022,5 hPa 0,0 l/m 0 min 0 min 0 W/m 16,1 km/h (3 Bft) 97,87 %
30.01.2023 18:36 6,5 C 5,6 C 2,2 C 82 % 1022,6 hPa 0,0 l/m 0 min 0 min 0 W/m 22,5 km/h (4 Bft) 100,00 %
30.01.2023 18:38 6,5 C 5,6 C 2,2 C 82 % 1022,6 hPa 0,0 l/m 0 min 0 min 0 W/m 9,7 km/h (2 Bft) 100,00 %
30.01.2023 18:40 6,5 C 5,6 C 2,2 C 82 % 1022,6 hPa 0,0 l/m 0 min 0 min 0 W/m 16,1 km/h (3 Bft) 97,87 %
30.01.2023 18:42 6,4 C 5,6 C 2,2 C 83 % 1022,7 hPa 0,0 l/m 0 min 0 min 0 W/m 12,9 km/h (3 Bft) 100,00 %
30.01.2023 18:44 6,4 C 5,6 C 2,2 C 83 % 1022,7 hPa 0,0 l/m 0 min 0 min 0 W/m 12,9 km/h (3 Bft) 100,00 %
30.01.2023 18:46 6,3 C 5,6 C 2,2 C 83 % 1022,7 hPa 0,0 l/m 0 min 0 min 0 W/m 9,7 km/h (2 Bft) 97,87 %
30.01.2023 18:48 6,3 C 5,6 C 2,2 C 83 % 1022,7 hPa 0,0 l/m 0 min 0 min 0 W/m 19,3 km/h (3 Bft) 100,00 %
30.01.2023 18:50 6,2 C 5,6 C 1,7 C 83 % 1022,8 hPa 0,0 l/m 0 min 0 min 0 W/m 9,7 km/h (2 Bft) 97,87 %
30.01.2023 18:52 6,2 C 5,6 C 1,7 C 83 % 1022,8 hPa 0,0 l/m 0 min 0 min 0 W/m 12,9 km/h (3 Bft) 100,00 %
30.01.2023 18:54 6,1 C 5,0 C 1,7 C 83 % 1022,8 hPa 0,0 l/m 0 min 0 min 0 W/m 12,9 km/h (3 Bft) 97,87 %
30.01.2023 18:56 6,1 C 5,0 C 1,7 C 83 % 1022,8 hPa 0,0 l/m 0 min 0 min 0 W/m 9,7 km/h (2 Bft) 100,00 %
30.01.2023 18:58 6,1 C 5,0 C 1,7 C 83 % 1022,9 hPa 0,0 l/m 0 min 0 min 0 W/m 16,1 km/h (3 Bft) 100,00 %
30.01.2023 19:00 5,9 C 5,0 C 1,7 C 84 % 1022,9 hPa 0,0 l/m 0 min 0 min 0 W/m 12,9 km/h (3 Bft) 95,74 %
30.01.2023 19:02 5,9 C 5,0 C 1,7 C 84 % 1023,0 hPa 0,0 l/m 0 min 0 min 0 W/m 12,9 km/h (3 Bft) 100,00 %
30.01.2023 19:04 5,8 C 5,0 C 1,7 C 84 % 1023,0 hPa 0,0 l/m 0 min 0 min 0 W/m 12,9 km/h (3 Bft) 97,87 %
30.01.2023 19:06 5,8 C 5,0 C 1,7 C 84 % 1023,1 hPa 0,0 l/m 0 min 0 min 0 W/m 16,1 km/h (3 Bft) 100,00 %
30.01.2023 19:08 5,8 C 5,0 C 1,7 C 84 % 1023,1 hPa 0,0 l/m 0 min 0 min 0 W/m 16,1 km/h (3 Bft) 100,00 %
30.01.2023 19:10 5,7 C 5,0 C 1,7 C 84 % 1023,1 hPa 0,0 l/m 0 min 0 min 0 W/m 22,5 km/h (4 Bft) 100,00 %
30.01.2023 19:12 5,7 C 5,0 C 1,7 C 85 % 1023,1 hPa 0,0 l/m 0 min 0 min 0 W/m 16,1 km/h (3 Bft) 97,87 %
30.01.2023 19:14 5,7 C 5,0 C 1,7 C 85 % 1023,2 hPa 0,0 l/m 0 min 0 min 0 W/m 16,1 km/h (3 Bft) 100,00 %
30.01.2023 19:16 5,7 C 5,0 C 1,7 C 85 % 1023,2 hPa 0,0 l/m 0 min 0 min 0 W/m 12,9 km/h (3 Bft) 100,00 %
30.01.2023 19:18 5,7 C 5,0 C 1,7 C 85 % 1023,2 hPa 0,0 l/m 0 min 0 min 0 W/m 9,7 km/h (2 Bft) 100,00 %
30.01.2023 19:20 5,7 C 5,0 C 1,7 C 85 % 1023,2 hPa 0,0 l/m 0 min 0 min 0 W/m 9,7 km/h (2 Bft) 95,74 %
30.01.2023 19:22 5,6 C 5,0 C 1,7 C 85 % 1023,3 hPa 0,0 l/m 0 min 0 min 0 W/m 9,7 km/h (2 Bft) 97,87 %
30.01.2023 19:24 5,6 C 5,0 C 1,7 C 85 % 1023,3 hPa 0,0 l/m 0 min 0 min 0 W/m 12,9 km/h (3 Bft) 97,87 %
30.01.2023 19:26 5,6 C 5,0 C 1,7 C 85 % 1023,4 hPa 0,0 l/m 0 min 0 min 0 W/m 16,1 km/h (3 Bft) 97,87 %
30.01.2023 19:28 5,6 C 5,0 C 1,7 C 85 % 1023,4 hPa 0,0 l/m 0 min 0 min 0 W/m 9,7 km/h (2 Bft) 100,00 %
30.01.2023 19:30 5,6 C 5,0 C 1,7 C 86 % 1023,4 hPa 0,0 l/m 0 min 0 min 0 W/m 16,1 km/h (3 Bft) 93,48 %
30.01.2023 19:32 5,6 C 5,0 C 1,7 C 86 % 1023,4 hPa 0,0 l/m 0 min 0 min 0 W/m 12,9 km/h (3 Bft) 97,87 %
30.01.2023 19:34 5,6 C 5,0 C 1,7 C 86 % 1023,5 hPa 0,0 l/m 0 min 0 min 0 W/m 12,9 km/h (3 Bft) 97,87 %
30.01.2023 19:36 5,6 C 5,0 C 1,1 C 86 % 1023,6 hPa 0,0 l/m 0 min 0 min 0 W/m 6,4 km/h (2 Bft) 65,96 %
30.01.2023 19:38 5,6 C 5,0 C 1,1 C 86 % 1023,5 hPa 0,0 l/m 0 min 0 min 0 W/m 16,1 km/h (3 Bft) 81,40 %
30.01.2023 19:40 5,6 C 5,0 C 1,1 C 86 % 1023,5 hPa 0,0 l/m 0 min 0 min 0 W/m 12,9 km/h (3 Bft) 91,49 %
30.01.2023 19:42 5,5 C 4,4 C 1,1 C 86 % 1023,5 hPa 0,0 l/m 0 min 0 min 0 W/m 22,5 km/h (4 Bft) 95,65 %
30.01.2023 19:44 5,5 C 4,4 C 1,1 C 86 % 1023,5 hPa 0,0 l/m 0 min 0 min 0 W/m 16,1 km/h (3 Bft) 95,74 %
30.01.2023 19:46 5,5 C 4,4 C 1,1 C 86 % 1023,6 hPa 0,0 l/m 0 min 0 min 0 W/m 12,9 km/h (3 Bft) 95,74 %
30.01.2023 19:48 5,4 C 4,4 C 1,1 C 86 % 1023,5 hPa 0,0 l/m 0 min 0 min 0 W/m 12,9 km/h (3 Bft) 93,62 %
30.01.2023 19:50 5,4 C 4,4 C 1,1 C 86 % 1023,5 hPa 0,0 l/m 0 min 0 min 0 W/m 12,9 km/h (3 Bft) 95,74 %
30.01.2023 19:52 5,4 C 4,4 C 1,1 C 86 % 1023,5 hPa 0,0 l/m 0 min 0 min 0 W/m 12,9 km/h (3 Bft) 95,74 %
30.01.2023 19:54 5,4 C 4,4 C 1,1 C 86 % 1023,5 hPa 0,0 l/m 0 min 0 min 0 W/m 6,4 km/h (2 Bft) 95,74 %
30.01.2023 19:56 5,3 C 4,4 C 1,1 C 86 % 1023,5 hPa 0,0 l/m 0 min 0 min 0 W/m 12,9 km/h (3 Bft) 95,65 %
30.01.2023 19:58 5,3 C 4,4 C 1,1 C 87 % 1023,5 hPa 0,0 l/m 0 min 0 min 0 W/m 12,9 km/h (3 Bft) 94,44 %
30.01.2023 20:00 5,3 C 4,4 C 1,1 C 87 % 1023,5 hPa 0,0 l/m 0 min 0 min 0 W/m 12,9 km/h (3 Bft) 93,62 %
30.01.2023 20:02 5,2 C 4,4 C 1,1 C 87 % 1023,6 hPa 0,0 l/m 0 min 0 min 0 W/m 12,9 km/h (3 Bft) 93,48 %
30.01.2023 20:04 5,2 C 4,4 C 1,1 C 87 % 1023,6 hPa 0,0 l/m 0 min 0 min 0 W/m 6,4 km/h (2 Bft) 95,74 %
30.01.2023 20:06 5,2 C 4,4 C 1,1 C 87 % 1023,7 hPa 0,0 l/m 0 min 0 min 0 W/m 12,9 km/h (3 Bft) 95,74 %
30.01.2023 20:08 5,2 C 4,4 C 1,1 C 87 % 1023,7 hPa 0,0 l/m 0 min 0 min 0 W/m 6,4 km/h (2 Bft) 91,49 %
30.01.2023 20:10 5,1 C 4,4 C 1,1 C 87 % 1023,7 hPa 0,0 l/m 0 min 0 min 0 W/m 9,7 km/h (2 Bft) 95,74 %
30.01.2023 20:12 5,1 C 4,4 C 1,1 C 88 % 1023,7 hPa 0,0 l/m 0 min 0 min 0 W/m 9,7 km/h (2 Bft) 97,87 %
30.01.2023 20:14 5,1 C 4,4 C 1,1 C 88 % 1023,7 hPa 0,0 l/m 0 min 0 min 0 W/m 16,1 km/h (3 Bft) 97,87 %
30.01.2023 20:16 5,1 C 4,4 C 1,1 C 88 % 1023,7 hPa 0,0 l/m 0 min 0 min 0 W/m 9,7 km/h (2 Bft) 97,83 %
30.01.2023 20:18 5,0 C 4,4 C 1,1 C 88 % 1023,7 hPa 0,0 l/m 0 min 0 min 0 W/m 9,7 km/h (2 Bft) 97,87 %
30.01.2023 20:20 5,0 C 3,9 C 0,6 C 88 % 1023,7 hPa 0,0 l/m 0 min 0 min 0 W/m 12,9 km/h (3 Bft) 95,74 %
30.01.2023 20:22 4,9 C 3,9 C 0,6 C 88 % 1023,7 hPa 0,0 l/m 0 min 0 min 0 W/m 12,9 km/h (3 Bft) 97,87 %
30.01.2023 20:24 4,9 C 3,9 C 0,6 C 88 % 1023,7 hPa 0,0 l/m 0 min 0 min 0 W/m 12,9 km/h (3 Bft) 97,87 %
30.01.2023 20:26 4,9 C 3,9 C 0,6 C 88 % 1023,7 hPa 0,0 l/m 0 min 0 min 0 W/m 9,7 km/h (2 Bft) 95,74 %
30.01.2023 20:28 4,8 C 3,9 C 0,6 C 88 % 1023,7 hPa 0,0 l/m 0 min 0 min 0 W/m 12,9 km/h (3 Bft) 97,83 %
30.01.2023 20:30 4,8 C 4,4 C 0,6 C 89 % 1023,7 hPa 0,0 l/m 0 min 0 min 0 W/m 9,7 km/h (2 Bft) 95,74 %
30.01.2023 20:32 4,9 C 4,4 C 1,1 C 89 % 1023,8 hPa 0,0 l/m 0 min 0 min 0 W/m 16,1 km/h (3 Bft) 97,87 %
30.01.2023 20:34 4,9 C 4,4 C 1,1 C 89 % 1023,9 hPa 0,0 l/m 0 min 0 min 0 W/m 6,4 km/h (2 Bft) 97,87 %
30.01.2023 20:36 4,9 C 4,4 C 1,1 C 89 % 1023,9 hPa 0,0 l/m 0 min 0 min 0 W/m 9,7 km/h (2 Bft) 97,87 %
30.01.2023 20:38 4,9 C 4,4 C 1,1 C 89 % 1023,9 hPa 0,0 l/m 0 min 0 min 0 W/m 9,7 km/h (2 Bft) 95,74 %
30.01.2023 20:40 4,9 C 4,4 C 1,1 C 89 % 1023,9 hPa 0,0 l/m 0 min 0 min 0 W/m 12,9 km/h (3 Bft) 42,86 %
30.01.2023 20:42 4,9 C 4,4 C 1,1 C 89 % 1023,9 hPa 0,0 l/m 0 min 0 min 0 W/m 12,9 km/h (3 Bft) 93,48 %
30.01.2023 20:44 5,0 C 4,4 C 1,1 C 89 % 1023,9 hPa 0,0 l/m 0 min 0 min 0 W/m 9,7 km/h (2 Bft) 95,74 %
30.01.2023 20:46 5,0 C 4,4 C 1,1 C 89 % 1023,9 hPa 0,0 l/m 0 min 0 min 0 W/m 12,9 km/h (3 Bft) 97,87 %
30.01.2023 20:48 5,0 C 4,4 C 1,1 C 89 % 1024,0 hPa 0,0 l/m 0 min 0 min 0 W/m 9,7 km/h (2 Bft) 97,87 %
30.01.2023 20:50 5,0 C 4,4 C 1,1 C 89 % 1024,0 hPa 0,0 l/m 0 min 0 min 0 W/m 12,9 km/h (3 Bft) 97,87 %
30.01.2023 20:52 4,9 C 4,4 C 1,1 C 89 % 1024,0 hPa 0,0 l/m 0 min 0 min 0 W/m 9,7 km/h (2 Bft) 97,87 %
30.01.2023 20:54 4,9 C 4,4 C 1,1 C 89 % 1024,1 hPa 0,0 l/m 0 min 0 min 0 W/m 12,9 km/h (3 Bft) 95,74 %
30.01.2023 20:56 4,9 C 4,4 C 1,1 C 89 % 1024,1 hPa 0,0 l/m 0 min 0 min 0 W/m 12,9 km/h (3 Bft) 97,83 %
30.01.2023 20:58 4,9 C 4,4 C 1,1 C 89 % 1024,2 hPa 0,0 l/m 0 min 0 min 0 W/m 12,9 km/h (3 Bft) 97,87 %
30.01.2023 21:00 4,9 C 4,4 C 1,1 C 88 % 1024,1 hPa 0,0 l/m 0 min 0 min 0 W/m 12,9 km/h (3 Bft) 97,87 %
30.01.2023 21:02 4,9 C 4,4 C 1,1 C 89 % 1024,2 hPa 0,0 l/m 0 min 0 min 0 W/m 6,4 km/h (2 Bft) 97,87 %
30.01.2023 21:04 4,9 C 4,4 C 0,6 C 89 % 1024,2 hPa 0,0 l/m 0 min 0 min 0 W/m 19,3 km/h (3 Bft) 100,00 %
30.01.2023 21:06 4,9 C 4,4 C 0,6 C 88 % 1024,3 hPa 0,0 l/m 0 min 0 min 0 W/m 12,9 km/h (3 Bft) 95,74 %
30.01.2023 21:08 4,9 C 4,4 C 0,6 C 88 % 1024,3 hPa 0,0 l/m 0 min 0 min 0 W/m 16,1 km/h (3 Bft) 100,00 %
30.01.2023 21:10 4,9 C 4,4 C 0,6 C 88 % 1024,3 hPa 0,0 l/m 0 min 0 min 0 W/m 9,7 km/h (2 Bft) 95,74 %
30.01.2023 21:12 4,9 C 4,4 C 0,6 C 88 % 1024,4 hPa 0,0 l/m 0 min 0 min 0 W/m 6,4 km/h (2 Bft) 95,74 %
30.01.2023 21:14 4,9 C 4,4 C 0,6 C 88 % 1024,4 hPa 0,0 l/m 0 min 0 min 0 W/m 6,4 km/h (2 Bft) 100,00 %
30.01.2023 21:16 4,9 C 3,9 C 0,6 C 88 % 1024,4 hPa 0,0 l/m 0 min 0 min 0 W/m 6,4 km/h (2 Bft) 95,74 %
30.01.2023 21:18 4,8 C 3,9 C 0,6 C 88 % 1024,4 hPa 0,0 l/m 0 min 0 min 0 W/m 12,9 km/h (3 Bft) 97,87 %
30.01.2023 21:20 4,8 C 4,4 C 0,6 C 88 % 1024,5 hPa 0,0 l/m 0 min 0 min 0 W/m 9,7 km/h (2 Bft) 97,87 %
30.01.2023 21:22 4,8 C 4,4 C 0,6 C 88 % 1024,6 hPa 0,0 l/m 0 min 0 min 0 W/m 12,9 km/h (3 Bft) 95,74 %
30.01.2023 21:24 4,8 C 4,4 C 0,6 C 88 % 1024,6 hPa 0,0 l/m 0 min 0 min 0 W/m 16,1 km/h (3 Bft) 93,48 %
30.01.2023 21:26 4,8 C 4,4 C 1,1 C 88 % 1024,6 hPa 0,0 l/m 0 min 0 min 0 W/m 9,7 km/h (2 Bft) 95,74 %
30.01.2023 21:28 4,9 C 4,4 C 1,1 C 88 % 1024,6 hPa 0,0 l/m 0 min 0 min 0 W/m 6,4 km/h (2 Bft) 95,74 %
30.01.2023 21:30 4,9 C 4,4 C 1,1 C 88 % 1024,6 hPa 0,0 l/m 0 min 0 min 0 W/m 12,9 km/h (3 Bft) 97,87 %
30.01.2023 21:32 4,9 C 4,4 C 1,1 C 88 % 1024,6 hPa 0,0 l/m 0 min 0 min 0 W/m 9,7 km/h (2 Bft) 97,87 %
30.01.2023 21:34 4,9 C 4,4 C 1,1 C 89 % 1024,6 hPa 0,0 l/m 0 min 0 min 0 W/m 12,9 km/h (3 Bft) 97,87 %
30.01.2023 21:36 4,9 C 4,4 C 1,1 C 88 % 1024,6 hPa 0,0 l/m 0 min 0 min 0 W/m 9,7 km/h (2 Bft) 97,83 %
30.01.2023 21:38 4,9 C 4,4 C 1,1 C 88 % 1024,7 hPa 0,0 l/m 0 min 0 min 0 W/m 12,9 km/h (3 Bft) 93,62 %
30.01.2023 21:40 4,9 C 3,9 C 0,6 C 88 % 1024,7 hPa 0,0 l/m 0 min 0 min 0 W/m 19,3 km/h (3 Bft) 97,87 %
30.01.2023 21:42 4,8 C 3,9 C 0,6 C 88 % 1024,7 hPa 0,0 l/m 0 min 0 min 0 W/m 12,9 km/h (3 Bft) 97,87 %
30.01.2023 21:44 4,8 C 3,9 C 0,6 C 88 % 1024,7 hPa 0,0 l/m 0 min 0 min 0 W/m 6,4 km/h (2 Bft) 97,87 %
30.01.2023 21:46 4,8 C 3,9 C 0,6 C 88 % 1024,8 hPa 0,0 l/m 0 min 0 min 0 W/m 9,7 km/h (2 Bft) 95,74 %
30.01.2023 21:48 4,8 C 3,9 C 0,6 C 88 % 1024,8 hPa 0,0 l/m 0 min 0 min 0 W/m 9,7 km/h (2 Bft) 93,62 %
30.01.2023 21:50 4,8 C 3,9 C 0,6 C 88 % 1024,8 hPa 0,0 l/m 0 min 0 min 0 W/m 9,7 km/h (2 Bft) 95,74 %
30.01.2023 21:52 4,7 C 3,9 C 0,6 C 88 % 1024,8 hPa 0,0 l/m 0 min 0 min 0 W/m 6,4 km/h (2 Bft) 100,00 %
30.01.2023 21:54 4,7 C 3,9 C 0,6 C 88 % 1024,7 hPa 0,0 l/m 0 min 0 min 0 W/m 6,4 km/h (2 Bft) 100,00 %
30.01.2023 21:56 4,7 C 3,9 C 0,6 C 89 % 1024,8 hPa 0,0 l/m 0 min 0 min 0 W/m 6,4 km/h (2 Bft) 95,74 %
30.01.2023 21:58 4,7 C 3,9 C 0,6 C 89 % 1024,7 hPa 0,0 l/m 0 min 0 min 0 W/m 6,4 km/h (2 Bft) 97,87 %
30.01.2023 22:00 4,6 C 3,9 C 0,6 C 89 % 1024,8 hPa 0,0 l/m 0 min 0 min 0 W/m 9,7 km/h (2 Bft) 97,87 %
30.01.2023 22:02 4,6 C 3,9 C 0,6 C 89 % 1024,8 hPa 0,0 l/m 0 min 0 min 0 W/m 12,9 km/h (3 Bft) 93,62 %
30.01.2023 22:04 4,6 C 3,9 C 0,6 C 89 % 1024,8 hPa 0,0 l/m 0 min 0 min 0 W/m 3,2 km/h (1 Bft) 95,65 %
30.01.2023 22:06 4,6 C 3,9 C 0,6 C 89 % 1024,8 hPa 0,0 l/m 0 min 0 min 0 W/m 12,9 km/h (3 Bft) 97,87 %
30.01.2023 22:08 4,6 C 3,9 C 0,6 C 89 % 1024,8 hPa 0,0 l/m 0 min 0 min 0 W/m 6,4 km/h (2 Bft) 97,87 %
30.01.2023 22:10 4,5 C 3,9 C 0,6 C 89 % 1024,8 hPa 0,0 l/m 0 min 0 min 0 W/m 6,4 km/h (2 Bft) 97,87 %
30.01.2023 22:12 4,5 C 3,9 C 0,6 C 89 % 1024,8 hPa 0,0 l/m 0 min 0 min 0 W/m 6,4 km/h (2 Bft) 97,87 %
30.01.2023 22:14 4,5 C 3,9 C 0,6 C 89 % 1024,8 hPa 0,0 l/m 0 min 0 min 0 W/m 6,4 km/h (2 Bft) 97,87 %
30.01.2023 22:16 4,4 C 3,3 C 0,6 C 89 % 1024,8 hPa 0,0 l/m 0 min 0 min 0 W/m 9,7 km/h (2 Bft) 97,87 %
30.01.2023 22:18 4,4 C 3,9 C 0,6 C 89 % 1024,7 hPa 0,0 l/m 0 min 0 min 0 W/m 16,1 km/h (3 Bft) 97,83 %
30.01.2023 22:20 4,4 C 3,9 C 0,6 C 89 % 1024,8 hPa 0,0 l/m 0 min 0 min 0 W/m 12,9 km/h (3 Bft) 95,74 %
30.01.2023 22:22 4,4 C 3,3 C 0,6 C 89 % 1024,9 hPa 0,0 l/m 0 min 0 min 0 W/m 6,4 km/h (2 Bft) 97,87 %
30.01.2023 22:24 4,4 C 3,9 C 0,6 C 89 % 1024,8 hPa 0,0 l/m 0 min 0 min 0 W/m 12,9 km/h (3 Bft) 97,87 %
30.01.2023 22:26 4,4 C 3,9 C 0,6 C 90 % 1024,8 hPa 0,0 l/m 0 min 0 min 0 W/m 6,4 km/h (2 Bft) 97,87 %
30.01.2023 22:28 4,4 C 3,9 C 0,6 C 90 % 1024,9 hPa 0,0 l/m 0 min 0 min 0 W/m 6,4 km/h (2 Bft) 95,74 %
30.01.2023 22:30 4,4 C 3,9 C 0,6 C 90 % 1024,9 hPa 0,0 l/m 0 min 0 min 0 W/m 3,2 km/h (1 Bft) 97,83 %
30.01.2023 22:32 4,4 C 3,9 C 0,6 C 90 % 1024,9 hPa 0,0 l/m 0 min 0 min 0 W/m 9,7 km/h (2 Bft) 95,74 %
30.01.2023 22:34 4,4 C 3,3 C 0,6 C 90 % 1025,0 hPa 0,0 l/m 0 min 0 min 0 W/m 6,4 km/h (2 Bft) 97,87 %
30.01.2023 22:36 4,4 C 3,3 C 0,6 C 90 % 1025,0 hPa 0,0 l/m 0 min 0 min 0 W/m 6,4 km/h (2 Bft) 95,74 %
30.01.2023 22:38 4,3 C 3,3 C 0,0 C 90 % 1025,0 hPa 0,0 l/m 0 min 0 min 0 W/m 6,4 km/h (2 Bft) 100,00 %
30.01.2023 22:40 4,3 C 3,3 C 0,0 C 90 % 1025,1 hPa 0,0 l/m 0 min 0 min 0 W/m 6,4 km/h (2 Bft) 100,00 %
30.01.2023 22:42 4,3 C 3,3 C 0,0 C 90 % 1025,0 hPa 0,0 l/m 0 min 0 min 0 W/m 3,2 km/h (1 Bft) 100,00 %
30.01.2023 22:44 4,3 C 3,3 C 0,0 C 90 % 1025,0 hPa 0,0 l/m 0 min 0 min 0 W/m 6,4 km/h (2 Bft) 100,00 %
30.01.2023 22:46 4,2 C 3,3 C 0,0 C 90 % 1025,1 hPa 0,0 l/m 0 min 0 min 0 W/m 6,4 km/h (2 Bft) 97,87 %
30.01.2023 22:48 4,2 C 3,3 C 0,0 C 90 % 1025,1 hPa 0,0 l/m 0 min 0 min 0 W/m 6,4 km/h (2 Bft) 100,00 %
30.01.2023 22:50 4,2 C 3,3 C 0,0 C 90 % 1025,1 hPa 0,0 l/m 0 min 0 min 0 W/m 6,4 km/h (2 Bft) 100,00 %
30.01.2023 22:52 4,1 C 3,3 C 0,0 C 90 % 1025,1 hPa 0,0 l/m 0 min 0 min 0 W/m 3,2 km/h (1 Bft) 97,87 %
30.01.2023 22:54 4,1 C 3,3 C 0,0 C 90 % 1025,1 hPa 0,0 l/m 0 min 0 min 0 W/m 6,4 km/h (2 Bft) 100,00 %
30.01.2023 22:56 4,1 C 3,3 C 0,0 C 91 % 1025,1 hPa 0,0 l/m 0 min 0 min 0 W/m 9,7 km/h (2 Bft) 100,00 %
30.01.2023 22:58 4,1 C 3,3 C 0,0 C 91 % 1025,1 hPa 0,0 l/m 0 min 0 min 0 W/m 12,9 km/h (3 Bft) 100,00 %
30.01.2023 23:00 4,1 C 3,3 C 0,0 C 91 % 1025,1 hPa 0,0 l/m 0 min 0 min 0 W/m 3,2 km/h (1 Bft) 100,00 %
30.01.2023 23:02 4,0 C 3,3 C 0,0 C 91 % 1025,0 hPa 0,0 l/m 0 min 0 min 0 W/m 9,7 km/h (2 Bft) 100,00 %
30.01.2023 23:04 4,0 C 3,3 C 0,0 C 91 % 1025,0 hPa 0,0 l/m 0 min 0 min 0 W/m 6,4 km/h (2 Bft) 97,14 %
30.01.2023 23:06 4,0 C 3,3 C 0,0 C 91 % 1025,1 hPa 0,0 l/m 0 min 0 min 0 W/m 6,4 km/h (2 Bft) 96,08 %
30.01.2023 23:08 3,9 C 3,3 C 0,0 C 91 % 1025,1 hPa 0,0 l/m 0 min 0 min 0 W/m 6,4 km/h (2 Bft) 97,87 %
30.01.2023 23:10 3,9 C 3,3 C 0,0 C 91 % 1025,1 hPa 0,0 l/m 0 min 0 min 0 W/m 6,4 km/h (2 Bft) 95,74 %
30.01.2023 23:12 3,9 C 3,3 C 0,0 C 91 % 1025,2 hPa 0,0 l/m 0 min 0 min 0 W/m 6,4 km/h (2 Bft) 93,62 %
30.01.2023 23:14 3,9 C 3,3 C 0,0 C 91 % 1025,2 hPa 0,0 l/m 0 min 0 min 0 W/m 6,4 km/h (2 Bft) 95,74 %
30.01.2023 23:16 3,9 C 3,3 C 0,0 C 91 % 1025,2 hPa 0,0 l/m 0 min 0 min 0 W/m 6,4 km/h (2 Bft) 93,62 %
30.01.2023 23:18 3,9 C 3,3 C 0,0 C 91 % 1025,3 hPa 0,0 l/m 0 min 0 min 0 W/m 6,4 km/h (2 Bft) 95,65 %
30.01.2023 23:20 3,8 C 3,3 C 0,0 C 91 % 1025,3 hPa 0,0 l/m 0 min 0 min 0 W/m 12,9 km/h (3 Bft) 97,87 %
30.01.2023 23:22 3,8 C 3,3 C 0,0 C 91 % 1025,2 hPa 0,0 l/m 0 min 0 min 0 W/m 9,7 km/h (2 Bft) 95,74 %
30.01.2023 23:24 3,8 C 2,8 C 0,0 C 92 % 1025,2 hPa 0,0 l/m 0 min 0 min 0 W/m 12,9 km/h (3 Bft) 97,87 %
30.01.2023 23:26 3,8 C 2,8 C 0,0 C 91 % 1025,2 hPa 0,0 l/m 0 min 0 min 0 W/m 12,9 km/h (3 Bft) 93,62 %
30.01.2023 23:28 3,8 C 2,8 C 0,0 C 91 % 1025,1 hPa 0,0 l/m 0 min 0 min 0 W/m 12,9 km/h (3 Bft) 93,62 %
30.01.2023 23:30 3,8 C 2,8 C 0,0 C 91 % 1025,2 hPa 0,0 l/m 0 min 0 min 0 W/m 6,4 km/h (2 Bft) 95,74 %
30.01.2023 23:32 3,8 C 2,8 C 0,0 C 92 % 1025,1 hPa 0,0 l/m 0 min 0 min 0 W/m 6,4 km/h (2 Bft) 95,65 %
30.01.2023 23:34 3,7 C 2,8 C 0,0 C 92 % 1025,1 hPa 0,0 l/m 0 min 0 min 0 W/m 6,4 km/h (2 Bft) 93,62 %
30.01.2023 23:36 3,7 C 2,8 C 0,0 C 92 % 1025,2 hPa 0,0 l/m 0 min 0 min 0 W/m 6,4 km/h (2 Bft) 97,87 %
30.01.2023 23:38 3,8 C 3,3 C 0,0 C 92 % 1025,1 hPa 0,0 l/m 0 min 0 min 0 W/m 22,5 km/h (4 Bft) 95,74 %
30.01.2023 23:40 3,8 C 3,3 C 0,0 C 92 % 1025,2 hPa 0,0 l/m 0 min 0 min 0 W/m 16,1 km/h (3 Bft) 97,87 %
30.01.2023 23:42 3,8 C 3,3 C 0,0 C 92 % 1025,2 hPa 0,0 l/m 0 min 0 min 0 W/m 16,1 km/h (3 Bft) 97,87 %
30.01.2023 23:44 3,8 C 3,3 C 0,0 C 92 % 1025,2 hPa 0,0 l/m 0 min 0 min 0 W/m 19,3 km/h (3 Bft) 95,74 %
30.01.2023 23:46 3,8 C 3,3 C 0,0 C 92 % 1025,2 hPa 0,0 l/m 0 min 0 min 0 W/m 12,9 km/h (3 Bft) 95,65 %
30.01.2023 23:48 3,8 C 3,3 C 0,0 C 92 % 1025,2 hPa 0,0 l/m 0 min 0 min 0 W/m 6,4 km/h (2 Bft) 93,62 %
30.01.2023 23:50 3,8 C 3,3 C 0,0 C 92 % 1025,2 hPa 0,0 l/m 0 min 0 min 0 W/m 9,7 km/h (2 Bft) 97,87 %
30.01.2023 23:52 3,9 C 3,3 C 0,0 C 92 % 1025,3 hPa 0,0 l/m 0 min 0 min 0 W/m 6,4 km/h (2 Bft) 97,87 %
30.01.2023 23:54 3,9 C 3,3 C 0,0 C 92 % 1025,3 hPa 0,0 l/m 0 min 0 min 0 W/m 9,7 km/h (2 Bft) 97,87 %
30.01.2023 23:56 3,9 C 3,3 C 0,0 C 92 % 1025,2 hPa 0,0 l/m 0 min 0 min 0 W/m 6,4 km/h (2 Bft) 95,74 %
30.01.2023 23:58 3,9 C 3,3 C 0,0 C 92 % 1025,3 hPa 0,0 l/m 0 min 0 min 0 W/m 6,4 km/h (2 Bft) 97,83 %
_ Min-Zeit 00:00 00:00 00:00 14:38 07:00 - - - - 22:04 00:50
Minimum _ 2,9 C 2,2 C -0,6 C 76 % 1016,2 hPa - - - - 3,2 km/h (1 Bft) 38,30 %
_ Max-Zeit 13:56 10:46 12:26 07:26 23:18 05:44 09:34 06:12 11:00 00:58 01:04
Maximum _ 7,7 C 10,6 C 3,9 C 98 % 1025,3 hPa 0,2 l/m 2 min 4 min 323 W/m 48,3 km/h
S (6 Bft)
100,00 %
Durchschnitt _ 5,5 C 5,0 C 1,6 C 89 % 1019,8 hPa #1,0 l/m #1:24 h #2:06 h 89 W/m 18,3 km/h (3 Bft) 95,74 %
© 2023 W. Hausmann